| time (UTC) | temp C | wind direction | speed KPH | gust KPH | rain 1hr cm | rain 24hr cm | rain mn cm | humidity % | barometer mb |
| 20260510182729 | 10 | 90 | 9.7 | 0.0 | 0.00 | 0.00 | 0.00 | 65 | 1057.7 |
| 20260510182610 | 10 | 0 | 0.0 | 0.0 | 0.00 | 0.00 | 0.00 | 65 | 1057.6 |
| 20260510182504 | 10 | 0 | 8.0 | 0.0 | 0.00 | 0.00 | 0.00 | 65 | 1057.6 |
| 20260510182353 | 10 | 22 | 14.5 | 0.0 | 0.00 | 0.00 | 0.00 | 65 | 1057.7 |
| 20260510182238 | 10 | 0 | 6.4 | 0.0 | 0.00 | 0.00 | 0.00 | 65 | 1057.7 |
| 20260510182125 | 10 | 0 | 16.1 | 0.0 | 0.00 | 0.00 | 0.00 | 65 | 1057.7 |
| 20260510182011 | 10 | 22 | 6.4 | 0.0 | 0.00 | 0.00 | 0.00 | 65 | 1057.8 |
| 20260510181850 | 10 | 22 | 11.3 | 0.0 | 0.00 | 0.00 | 0.00 | 65 | 1057.8 |
| 20260510181729 | 10 | 22 | 0.0 | 0.0 | 0.00 | 0.00 | 0.00 | 65 | 1057.8 |
| 20260510181624 | 10 | 0 | 0.0 | 0.0 | 0.00 | 0.00 | 0.00 | 64 | 1057.8 |
| 20260510181518 | 10 | 0 | 0.0 | 0.0 | 0.00 | 0.00 | 0.00 | 64 | 1057.7 |
| 20260510181404 | 10 | 22 | 8.0 | 0.0 | 0.00 | 0.00 | 0.00 | 64 | 1057.8 |
| 20260510181250 | 10 | 0 | 11.3 | 0.0 | 0.00 | 0.00 | 0.00 | 64 | 1057.8 |
| 20260510181127 | 10 | 45 | 6.4 | 0.0 | 0.00 | 0.00 | 0.00 | 64 | 1057.8 |
| 20260510181015 | 10 | 22 | 8.0 | 0.0 | 0.00 | 0.00 | 0.00 | 64 | 1057.9 |
| 20260510180902 | 10 | 0 | 4.8 | 0.0 | 0.00 | 0.00 | 0.00 | 64 | 1057.9 |
| 20260510180757 | 10 | 0 | 14.5 | 0.0 | 0.00 | 0.00 | 0.00 | 64 | 1057.9 |
| 20260510180651 | 10 | 22 | 6.4 | 0.0 | 0.00 | 0.00 | 0.00 | 64 | 1057.8 |
| 20260510180543 | 10 | 22 | 11.3 | 0.0 | 0.00 | 0.00 | 0.00 | 65 | 1057.9 |
| 20260510180422 | 10 | 22 | 9.7 | 0.0 | 0.00 | 0.00 | 0.00 | 65 | 1057.9 |
| 20260510180310 | 10 | 0 | 22.5 | 0.0 | 0.00 | 0.00 | 0.00 | 66 | 1057.8 |
| 20260510180206 | 10 | 337 | 8.0 | 0.0 | 0.00 | 0.00 | 0.00 | 66 | 1057.8 |
| 20260510175947 | 10 | 22 | 4.8 | 0.0 | 0.00 | 0.00 | 0.00 | 67 | 1057.9 |
| 20260510175833 | 10 | 0 | 8.0 | 0.0 | 0.00 | 0.00 | 0.00 | 67 | 1057.8 |
| 20260510175719 | 10 | 22 | 6.4 | 0.0 | 0.00 | 0.00 | 0.00 | 68 | 1057.9 |
| 20260510175601 | 10 | 337 | 20.9 | 0.0 | 0.00 | 0.00 | 0.00 | 68 | 1057.8 |
| 20260510175456 | 10 | 0 | 11.3 | 0.0 | 0.00 | 0.00 | 0.00 | 68 | 1057.9 |
| 20260510175351 | 10 | 0 | 0.0 | 0.0 | 0.00 | 0.00 | 0.00 | 68 | 1057.8 |
| 20260510175244 | 10 | 0 | 14.5 | 0.0 | 0.00 | 0.00 | 0.00 | 68 | 1057.8 |
| 20260510175131 | 10 | 22 | 6.4 | 0.0 | 0.00 | 0.00 | 0.00 | 68 | 1057.8 |
| 20260510175018 | 10 | 90 | 6.4 | 0.0 | 0.00 | 0.00 | 0.00 | 68 | 1057.9 |
| 20260510174913 | 10 | 22 | 6.4 | 0.0 | 0.00 | 0.00 | 0.00 | 68 | 1057.9 |
| 20260510174753 | 10 | 0 | 8.0 | 0.0 | 0.00 | 0.00 | 0.00 | 67 | 1057.9 |
| 20260510174638 | 10 | 22 | 9.7 | 0.0 | 0.00 | 0.00 | 0.00 | 67 | 1057.9 |
| 20260510174519 | 10 | 22 | 11.3 | 0.0 | 0.00 | 0.00 | 0.00 | 66 | 1058.0 |
| 20260510174411 | 10 | 0 | 9.7 | 0.0 | 0.00 | 0.00 | 0.00 | 66 | 1058.0 |
| 20260510174259 | 10 | 0 | 11.3 | 0.0 | 0.00 | 0.00 | 0.00 | 66 | 1057.9 |
| 20260510174137 | 10 | 0 | 0.0 | 0.0 | 0.00 | 0.00 | 0.00 | 66 | 1058.0 |
| 20260510174017 | 10 | 22 | 24.1 | 0.0 | 0.00 | 0.00 | 0.00 | 66 | 1058.0 |
| 20260510173903 | 10 | 337 | 17.7 | 0.0 | 0.00 | 0.00 | 0.00 | 66 | 1058.0 |
| 20260510173734 | 10 | 0 | 14.5 | 0.0 | 0.00 | 0.00 | 0.00 | 67 | 1058.0 |
| 20260510173621 | 10 | 337 | 8.0 | 0.0 | 0.00 | 0.00 | 0.00 | 67 | 1058.0 |
| 20260510173507 | 10 | 337 | 6.4 | 0.0 | 0.00 | 0.00 | 0.00 | 67 | 1058.0 |
| 20260510173346 | 10 | 0 | 0.0 | 0.0 | 0.00 | 0.00 | 0.00 | 66 | 1058.0 |
| 20260510173228 | 10 | 337 | 0.0 | 0.0 | 0.00 | 0.00 | 0.00 | 66 | 1058.0 |
| 20260510173120 | 10 | 22 | 9.7 | 0.0 | 0.00 | 0.00 | 0.00 | 66 | 1058.0 |
| 20260510172954 | 10 | 0 | 4.8 | 0.0 | 0.00 | 0.00 | 0.00 | 65 | 1058.0 |
| 20260510172847 | 10 | 22 | 20.9 | 0.0 | 0.00 | 0.00 | 0.00 | 65 | 1058.0 |
| 20260510172741 | 10 | 22 | 9.7 | 0.0 | 0.00 | 0.00 | 0.00 | 65 | 1058.0 |
| 20260510172628 | 10 | 22 | 0.0 | 0.0 | 0.00 | 0.00 | 0.00 | 65 | 1058.1 |
| 20260510172508 | 11 | 22 | 9.7 | 0.0 | 0.00 | 0.00 | 0.00 | 65 | 1058.1 |
| 20260510172403 | 11 | 22 | 14.5 | 0.0 | 0.00 | 0.00 | 0.00 | 64 | 1058.1 |
| 20260510172256 | 11 | 22 | 12.9 | 0.0 | 0.00 | 0.00 | 0.00 | 65 | 1058.2 |
| 20260510172142 | 11 | 0 | 9.7 | 0.0 | 0.00 | 0.00 | 0.00 | 66 | 1058.2 |
| 20260510172030 | 11 | 0 | 3.2 | 0.0 | 0.00 | 0.00 | 0.00 | 65 | 1058.2 |
| 20260510171908 | 11 | 45 | 1.6 | 0.0 | 0.00 | 0.00 | 0.00 | 64 | 1058.2 |
| 20260510171747 | 11 | 45 | 9.7 | 0.0 | 0.00 | 0.00 | 0.00 | 64 | 1058.2 |
| 20260510171641 | 11 | 0 | 9.7 | 0.0 | 0.00 | 0.00 | 0.00 | 64 | 1058.2 |
| 20260510171535 | 11 | 0 | 11.3 | 0.0 | 0.00 | 0.00 | 0.00 | 64 | 1058.2 |
| 20260510171429 | 11 | 22 | 8.0 | 0.0 | 0.00 | 0.00 | 0.00 | 63 | 1058.3 |
| 20260510171322 | 11 | 0 | 11.3 | 0.0 | 0.00 | 0.00 | 0.00 | 64 | 1058.2 |
| 20260510171152 | 11 | 0 | 6.4 | 0.0 | 0.00 | 0.00 | 0.00 | 64 | 1058.3 |
| 20260510171038 | 11 | 337 | 0.0 | 0.0 | 0.00 | 0.00 | 0.00 | 63 | 1058.3 |
| 20260510170931 | 11 | 45 | 11.3 | 0.0 | 0.00 | 0.00 | 0.00 | 63 | 1058.3 |
| 20260510170826 | 11 | 0 | 9.7 | 0.0 | 0.00 | 0.00 | 0.00 | 63 | 1058.3 |
| 20260510170720 | 11 | 22 | 12.9 | 0.0 | 0.00 | 0.00 | 0.00 | 63 | 1058.2 |
| 20260510170613 | 11 | 22 | 16.1 | 0.0 | 0.00 | 0.00 | 0.00 | 63 | 1058.4 |
| 20260510170508 | 11 | 22 | 20.9 | 0.0 | 0.00 | 0.00 | 0.00 | 63 | 1058.3 |
| 20260510170402 | 11 | 0 | 6.4 | 0.0 | 0.00 | 0.00 | 0.00 | 64 | 1058.4 |
| 20260510170231 | 11 | 67 | 9.7 | 0.0 | 0.00 | 0.00 | 0.00 | 63 | 1058.3 |
| 20260510170117 | 11 | 22 | 3.2 | 0.0 | 0.00 | 0.00 | 0.00 | 63 | 1058.3 |
| 20260510170012 | 11 | 22 | 9.7 | 0.0 | 0.00 | 0.00 | 0.00 | 63 | 1058.3 |
| 20260510165905 | 11 | 0 | 8.0 | 0.0 | 0.00 | 0.00 | 0.00 | 63 | 1058.3 |
| 20260510165751 | 11 | 0 | 17.7 | 0.0 | 0.00 | 0.00 | 0.00 | 63 | 1058.3 |
| 20260510165630 | 11 | 22 | 22.5 | 0.0 | 0.00 | 0.00 | 0.00 | 63 | 1058.3 |
| 20260510165517 | 11 | 0 | 19.3 | 0.0 | 0.00 | 0.00 | 0.00 | 63 | 1058.3 |
| 20260510165410 | 11 | 337 | 11.3 | 0.0 | 0.00 | 0.00 | 0.00 | 64 | 1058.4 |
| 20260510165256 | 11 | 45 | 9.7 | 0.0 | 0.00 | 0.00 | 0.00 | 65 | 1058.4 |
| 20260510165135 | 11 | 337 | 8.0 | 0.0 | 0.00 | 0.00 | 0.00 | 64 | 1058.4 |
| 20260510165021 | 11 | 0 | 0.0 | 0.0 | 0.00 | 0.00 | 0.00 | 64 | 1058.4 |
| 20260510164914 | 11 | 45 | 14.5 | 0.0 | 0.00 | 0.00 | 0.00 | 64 | 1058.4 |
| 20260510164809 | 11 | 337 | 11.3 | 0.0 | 0.00 | 0.00 | 0.00 | 64 | 1058.4 |
| 20260510164702 | 11 | 0 | 9.7 | 0.0 | 0.00 | 0.00 | 0.00 | 63 | 1058.4 |
| 20260510164541 | 11 | 22 | 16.1 | 0.0 | 0.00 | 0.00 | 0.00 | 63 | 1058.3 |
| 20260510164428 | 11 | 0 | 11.3 | 0.0 | 0.00 | 0.00 | 0.00 | 63 | 1058.5 |
| 20260510164315 | 11 | 22 | 22.5 | 0.0 | 0.00 | 0.00 | 0.00 | 63 | 1058.5 |
| 20260510164210 | 11 | 0 | 19.3 | 0.0 | 0.00 | 0.00 | 0.00 | 63 | 1058.5 |
| 20260510164057 | 11 | 0 | 11.3 | 0.0 | 0.00 | 0.00 | 0.00 | 63 | 1058.5 |
| 20260510163717 | 11 | 0 | 3.2 | 0.0 | 0.00 | 0.00 | 0.00 | 63 | 1058.6 |
| 20260510163450 | 11 | 0 | 8.0 | 0.0 | 0.00 | 0.00 | 0.00 | 64 | 1058.6 |
| 20260510163329 | 11 | 337 | 8.0 | 0.0 | 0.00 | 0.00 | 0.00 | 64 | 1058.6 |
| 20260510163224 | 11 | 315 | 24.1 | 0.0 | 0.00 | 0.00 | 0.00 | 65 | 1058.7 |
| 20260510163111 | 11 | 337 | 17.7 | 0.0 | 0.00 | 0.00 | 0.00 | 66 | 1058.7 |
| 20260510162950 | 11 | 22 | 6.4 | 0.0 | 0.00 | 0.00 | 0.00 | 66 | 1058.7 |
| 20260510162838 | 11 | 0 | 17.7 | 0.0 | 0.00 | 0.00 | 0.00 | 66 | 1058.7 |
| 20260510162732 | 11 | 22 | 0.0 | 0.0 | 0.00 | 0.00 | 0.00 | 65 | 1058.7 |
| 20260510162610 | 11 | 22 | 16.1 | 0.0 | 0.00 | 0.00 | 0.00 | 64 | 1058.7 |
| 20260510162449 | 11 | 22 | 19.3 | 0.0 | 0.00 | 0.00 | 0.00 | 64 | 1058.8 |
| 20260510162344 | 11 | 22 | 8.0 | 0.0 | 0.00 | 0.00 | 0.00 | 64 | 1058.8 |
| 20260510162239 | 11 | 22 | 22.5 | 0.0 | 0.00 | 0.00 | 0.00 | 64 | 1058.8 |
| 20260510162119 | 11 | 337 | 11.3 | 0.0 | 0.00 | 0.00 | 0.00 | 64 | 1058.8 |
| 20260510162015 | 11 | 337 | 8.0 | 0.0 | 0.00 | 0.00 | 0.00 | 64 | 1058.8 |
| 20260510161907 | 11 | 0 | 14.5 | 0.0 | 0.00 | 0.00 | 0.00 | 64 | 1058.8 |
| 20260510161738 | 11 | 0 | 11.3 | 0.0 | 0.00 | 0.00 | 0.00 | 64 | 1058.8 |
| 20260510161618 | 11 | 22 | 12.9 | 0.0 | 0.00 | 0.00 | 0.00 | 65 | 1058.9 |
| 20260510161512 | 11 | 0 | 11.3 | 0.0 | 0.00 | 0.00 | 0.00 | 65 | 1058.9 |
| 20260510161358 | 11 | 337 | 20.9 | 0.0 | 0.00 | 0.00 | 0.00 | 66 | 1058.9 |
| 20260510161231 | 11 | 22 | 22.5 | 0.0 | 0.00 | 0.00 | 0.00 | 66 | 1058.8 |
| 20260510161127 | 11 | 0 | 12.9 | 0.0 | 0.00 | 0.00 | 0.00 | 66 | 1059.0 |
| 20260510161019 | 11 | 337 | 11.3 | 0.0 | 0.00 | 0.00 | 0.00 | 65 | 1059.0 |
| 20260510160900 | 11 | 0 | 4.8 | 0.0 | 0.00 | 0.00 | 0.00 | 65 | 1059.0 |
| 20260510160755 | 11 | 0 | 17.7 | 0.0 | 0.00 | 0.00 | 0.00 | 65 | 1058.9 |
| 20260510160640 | 11 | 22 | 25.7 | 0.0 | 0.00 | 0.00 | 0.00 | 65 | 1059.0 |
| 20260510160519 | 11 | 22 | 8.0 | 0.0 | 0.00 | 0.00 | 0.00 | 65 | 1059.0 |
| 20260510160405 | 11 | 0 | 24.1 | 0.0 | 0.00 | 0.00 | 0.00 | 65 | 1059.0 |
| 20260510160253 | 11 | 45 | 17.7 | 0.0 | 0.00 | 0.00 | 0.00 | 65 | 1059.0 |
| 20260510160140 | 11 | 45 | 6.4 | 0.0 | 0.00 | 0.00 | 0.00 | 67 | 1059.0 |
| 20260510160026 | 11 | 0 | 9.7 | 0.0 | 0.00 | 0.00 | 0.00 | 67 | 1059.1 |
| 20260510155912 | 11 | 22 | 22.5 | 0.0 | 0.00 | 0.00 | 0.00 | 67 | 1059.0 |
| 20260510155802 | 11 | 45 | 9.7 | 0.0 | 0.00 | 0.00 | 0.00 | 67 | 1059.0 |
| 20260510155649 | 11 | 45 | 12.9 | 0.0 | 0.00 | 0.00 | 0.00 | 67 | 1059.0 |
| 20260510155542 | 11 | 22 | 9.7 | 0.0 | 0.00 | 0.00 | 0.00 | 67 | 1059.1 |
| 20260510155429 | 11 | 22 | 0.0 | 0.0 | 0.00 | 0.00 | 0.00 | 67 | 1059.0 |
| 20260510155324 | 11 | 337 | 6.4 | 0.0 | 0.00 | 0.00 | 0.00 | 67 | 1059.2 |
| 20260510155210 | 11 | 22 | 12.9 | 0.0 | 0.00 | 0.00 | 0.00 | 67 | 1059.1 |
| 20260510155042 | 11 | 22 | 9.7 | 0.0 | 0.00 | 0.00 | 0.00 | 67 | 1059.2 |
| 20260510154936 | 11 | 337 | 17.7 | 0.0 | 0.00 | 0.00 | 0.00 | 67 | 1059.2 |
| 20260510154817 | 11 | 45 | 9.7 | 0.0 | 0.00 | 0.00 | 0.00 | 67 | 1059.2 |
| 20260510154702 | 11 | 22 | 25.7 | 0.0 | 0.00 | 0.00 | 0.00 | 67 | 1059.2 |
| 20260510154549 | 11 | 0 | 9.7 | 0.0 | 0.00 | 0.00 | 0.00 | 67 | 1059.1 |
| 20260510154444 | 11 | 67 | 9.7 | 0.0 | 0.00 | 0.00 | 0.00 | 66 | 1059.2 |
| 20260510154330 | 11 | 22 | 6.4 | 0.0 | 0.00 | 0.00 | 0.00 | 66 | 1059.3 |
| 20260510154217 | 11 | 0 | 20.9 | 0.0 | 0.00 | 0.00 | 0.00 | 65 | 1059.3 |
| 20260510154105 | 11 | 337 | 6.4 | 0.0 | 0.00 | 0.00 | 0.00 | 66 | 1059.3 |
| 20260510153952 | 11 | 22 | 9.7 | 0.0 | 0.00 | 0.00 | 0.00 | 66 | 1059.2 |
| 20260510153846 | 11 | 22 | 14.5 | 0.0 | 0.00 | 0.00 | 0.00 | 66 | 1059.3 |
| 20260510153734 | 11 | 337 | 6.4 | 0.0 | 0.00 | 0.00 | 0.00 | 66 | 1059.3 |
| 20260510153620 | 11 | 315 | 14.5 | 0.0 | 0.00 | 0.00 | 0.00 | 66 | 1059.2 |
| 20260510153507 | 12 | 337 | 11.3 | 0.0 | 0.00 | 0.00 | 0.00 | 66 | 1059.3 |
| 20260510153345 | 12 | 0 | 11.3 | 0.0 | 0.00 | 0.00 | 0.00 | 66 | 1059.3 |
| 20260510153226 | 11 | 337 | 14.5 | 0.0 | 0.00 | 0.00 | 0.00 | 67 | 1059.2 |
| 20260510153119 | 11 | 337 | 0.0 | 0.0 | 0.00 | 0.00 | 0.00 | 66 | 1059.3 |
| 20260510153000 | 11 | 337 | 0.0 | 0.0 | 0.00 | 0.00 | 0.00 | 66 | 1059.3 |
| 20260510152853 | 11 | 0 | 16.1 | 0.0 | 0.00 | 0.00 | 0.00 | 67 | 1059.3 |
| 20260510152750 | 11 | 22 | 17.7 | 0.0 | 0.00 | 0.00 | 0.00 | 67 | 1059.3 |
| 20260510152646 | 11 | 0 | 4.8 | 0.0 | 0.00 | 0.00 | 0.00 | 67 | 1059.4 |
| 20260510152538 | 11 | 337 | 8.0 | 0.0 | 0.00 | 0.00 | 0.00 | 66 | 1059.3 |
| 20260510152426 | 11 | 45 | 9.7 | 0.0 | 0.00 | 0.00 | 0.00 | 65 | 1059.3 |
| 20260510152320 | 12 | 67 | 8.0 | 0.0 | 0.00 | 0.00 | 0.00 | 65 | 1059.4 |
| 20260510152159 | 12 | 0 | 9.7 | 0.0 | 0.00 | 0.00 | 0.00 | 65 | 1059.3 |
| 20260510152039 | 12 | 337 | 20.9 | 0.0 | 0.00 | 0.00 | 0.00 | 65 | 1059.4 |
| 20260510151933 | 12 | 22 | 17.7 | 0.0 | 0.00 | 0.00 | 0.00 | 65 | 1059.4 |
| 20260510151819 | 12 | 0 | 12.9 | 0.0 | 0.00 | 0.00 | 0.00 | 64 | 1059.4 |
| 20260510151707 | 12 | 0 | 11.3 | 0.0 | 0.00 | 0.00 | 0.00 | 63 | 1059.4 |
| 20260510151601 | 12 | 22 | 9.7 | 0.0 | 0.00 | 0.00 | 0.00 | 63 | 1059.4 |
| 20260510151440 | 13 | 22 | 17.7 | 0.0 | 0.00 | 0.00 | 0.00 | 62 | 1059.5 |
| 20260510151316 | 13 | 0 | 9.7 | 0.0 | 0.00 | 0.00 | 0.00 | 62 | 1059.5 |
| 20260510151157 | 13 | 0 | 17.7 | 0.0 | 0.00 | 0.00 | 0.00 | 63 | 1059.4 |
| 20260510151037 | 13 | 0 | 11.3 | 0.0 | 0.00 | 0.00 | 0.00 | 62 | 1059.5 |
| 20260510150932 | 13 | 0 | 11.3 | 0.0 | 0.00 | 0.00 | 0.00 | 62 | 1059.4 |
| 20260510150826 | 13 | 0 | 0.0 | 0.0 | 0.00 | 0.00 | 0.00 | 62 | 1059.4 |
| 20260510150721 | 13 | 45 | 12.9 | 0.0 | 0.00 | 0.00 | 0.00 | 63 | 1059.4 |
| 20260510150608 | 13 | 22 | 17.7 | 0.0 | 0.00 | 0.00 | 0.00 | 64 | 1059.4 |
| 20260510150447 | 13 | 45 | 14.5 | 0.0 | 0.00 | 0.00 | 0.00 | 64 | 1059.4 |
| 20260510150333 | 13 | 22 | 24.1 | 0.0 | 0.00 | 0.00 | 0.00 | 65 | 1059.5 |
| 20260510150211 | 13 | 67 | 12.9 | 0.0 | 0.00 | 0.00 | 0.00 | 65 | 1059.5 |
| 20260510150050 | 13 | 22 | 12.9 | 0.0 | 0.00 | 0.00 | 0.00 | 64 | 1059.4 |
| 20260510145946 | 13 | 22 | 17.7 | 0.0 | 0.00 | 0.00 | 0.00 | 63 | 1059.4 |
| 20260510145840 | 13 | 45 | 27.4 | 0.0 | 0.00 | 0.00 | 0.00 | 62 | 1059.5 |
| 20260510145728 | 13 | 22 | 8.0 | 0.0 | 0.00 | 0.00 | 0.00 | 61 | 1059.4 |
| 20260510145613 | 13 | 45 | 25.7 | 0.0 | 0.00 | 0.00 | 0.00 | 61 | 1059.5 |
| 20260510145501 | 13 | 22 | 20.9 | 0.0 | 0.00 | 0.00 | 0.00 | 61 | 1059.6 |
| 20260510145347 | 13 | 67 | 11.3 | 0.0 | 0.00 | 0.00 | 0.00 | 60 | 1059.5 |
| 20260510145242 | 13 | 0 | 8.0 | 0.0 | 0.00 | 0.00 | 0.00 | 60 | 1059.5 |
| 20260510145130 | 14 | 45 | 14.5 | 0.0 | 0.00 | 0.00 | 0.00 | 60 | 1059.5 |
| 20260510145026 | 14 | 90 | 29.0 | 0.0 | 0.00 | 0.00 | 0.00 | 60 | 1059.5 |
| 20260510144913 | 14 | 45 | 20.9 | 0.0 | 0.00 | 0.00 | 0.00 | 61 | 1059.6 |
| 20260510144758 | 14 | 22 | 16.1 | 0.0 | 0.00 | 0.00 | 0.00 | 61 | 1059.6 |
| 20260510144645 | 14 | 22 | 12.9 | 0.0 | 0.00 | 0.00 | 0.00 | 61 | 1059.5 |
| 20260510144523 | 14 | 22 | 14.5 | 0.0 | 0.00 | 0.00 | 0.00 | 62 | 1059.6 |
| 20260510144402 | 13 | 22 | 8.0 | 0.0 | 0.00 | 0.00 | 0.00 | 63 | 1059.5 |
| 20260510144249 | 13 | 0 | 11.3 | 0.0 | 0.00 | 0.00 | 0.00 | 62 | 1059.5 |
| 20260510144128 | 13 | 22 | 22.5 | 0.0 | 0.00 | 0.00 | 0.00 | 62 | 1059.7 |
| 20260510144015 | 13 | 22 | 14.5 | 0.0 | 0.00 | 0.00 | 0.00 | 62 | 1059.6 |
| 20260510143910 | 13 | 22 | 22.5 | 0.0 | 0.00 | 0.00 | 0.00 | 62 | 1059.6 |
| 20260510143804 | 13 | 22 | 19.3 | 0.0 | 0.00 | 0.00 | 0.00 | 62 | 1059.7 |
| 20260510143635 | 13 | 22 | 9.7 | 0.0 | 0.00 | 0.00 | 0.00 | 61 | 1059.7 |
| 20260510143523 | 13 | 22 | 12.9 | 0.0 | 0.00 | 0.00 | 0.00 | 61 | 1059.7 |
| 20260510143417 | 13 | 45 | 14.5 | 0.0 | 0.00 | 0.00 | 0.00 | 62 | 1059.7 |
| 20260510143312 | 13 | 67 | 19.3 | 0.0 | 0.00 | 0.00 | 0.00 | 62 | 1059.7 |
| 20260510143159 | 13 | 45 | 14.5 | 0.0 | 0.00 | 0.00 | 0.00 | 63 | 1059.7 |
| 20260510143038 | 13 | 0 | 9.7 | 0.0 | 0.00 | 0.00 | 0.00 | 62 | 1059.7 |
| 20260510142925 | 13 | 22 | 17.7 | 0.0 | 0.00 | 0.00 | 0.00 | 62 | 1059.8 |
| 20260510142812 | 13 | 22 | 14.5 | 0.0 | 0.00 | 0.00 | 0.00 | 62 | 1059.7 |
| 20260510142658 | 13 | 67 | 16.1 | 0.0 | 0.00 | 0.00 | 0.00 | 62 | 1059.8 |
| 20260510142545 | 13 | 45 | 19.3 | 0.0 | 0.00 | 0.00 | 0.00 | 62 | 1059.8 |
| 20260510142432 | 13 | 0 | 19.3 | 0.0 | 0.00 | 0.00 | 0.00 | 62 | 1059.9 |
| 20260510142313 | 13 | 45 | 29.0 | 0.0 | 0.00 | 0.00 | 0.00 | 63 | 1059.8 |
| 20260510142206 | 13 | 67 | 16.1 | 0.0 | 0.00 | 0.00 | 0.00 | 62 | 1059.8 |
| 20260510142101 | 13 | 45 | 17.7 | 0.0 | 0.00 | 0.00 | 0.00 | 65 | 1059.9 |
| 20260510141939 | 13 | 0 | 14.5 | 0.0 | 0.00 | 0.00 | 0.00 | 66 | 1059.9 |
| 20260510141834 | 12 | 45 | 12.9 | 0.0 | 0.00 | 0.00 | 0.00 | 66 | 1059.9 |
| 20260510141721 | 12 | 22 | 11.3 | 0.0 | 0.00 | 0.00 | 0.00 | 65 | 1059.8 |
| 20260510141608 | 12 | 22 | 9.7 | 0.0 | 0.00 | 0.00 | 0.00 | 65 | 1059.9 |
| 20260510141454 | 12 | 45 | 11.3 | 0.0 | 0.00 | 0.00 | 0.00 | 65 | 1059.9 |
| 20260510141341 | 12 | 337 | 24.1 | 0.0 | 0.00 | 0.00 | 0.00 | 65 | 1059.8 |
| 20260510141221 | 12 | 22 | 27.4 | 0.0 | 0.00 | 0.00 | 0.00 | 65 | 1059.8 |
| 20260510141115 | 12 | 0 | 19.3 | 0.0 | 0.00 | 0.00 | 0.00 | 66 | 1060.0 |
| 20260510141002 | 12 | 22 | 8.0 | 0.0 | 0.00 | 0.00 | 0.00 | 65 | 1060.0 |
| 20260510140849 | 12 | 0 | 12.9 | 0.0 | 0.00 | 0.00 | 0.00 | 65 | 1059.9 |
| 20260510140745 | 12 | 22 | 17.7 | 0.0 | 0.00 | 0.00 | 0.00 | 65 | 1060.0 |
| 20260510140638 | 12 | 315 | 20.9 | 0.0 | 0.00 | 0.00 | 0.00 | 66 | 1060.0 |
| 20260510140525 | 12 | 45 | 20.9 | 0.0 | 0.00 | 0.00 | 0.00 | 67 | 1059.9 |
| 20260510140405 | 13 | 45 | 24.1 | 0.0 | 0.00 | 0.00 | 0.00 | 66 | 1059.9 |
| 20260510140252 | 13 | 22 | 17.7 | 0.0 | 0.00 | 0.00 | 0.00 | 66 | 1060.0 |
| 20260510140145 | 13 | 45 | 22.5 | 0.0 | 0.00 | 0.00 | 0.00 | 67 | 1060.0 |
| 20260510140019 | 13 | 0 | 14.5 | 0.0 | 0.00 | 0.00 | 0.00 | 68 | 1060.0 |
| 20260510135913 | 12 | 22 | 6.4 | 0.0 | 0.00 | 0.00 | 0.00 | 67 | 1060.0 |
| 20260510135807 | 12 | 0 | 24.1 | 0.0 | 0.00 | 0.00 | 0.00 | 68 | 1060.0 |
| 20260510135654 | 12 | 67 | 14.5 | 0.0 | 0.00 | 0.00 | 0.00 | 69 | 1059.9 |
| 20260510135549 | 12 | 67 | 12.9 | 0.0 | 0.00 | 0.00 | 0.00 | 69 | 1059.9 |
| 20260510135444 | 12 | 0 | 9.7 | 0.0 | 0.00 | 0.00 | 0.00 | 68 | 1059.9 |
| 20260510135331 | 12 | 22 | 14.5 | 0.0 | 0.00 | 0.00 | 0.00 | 67 | 1059.9 |
| 20260510135219 | 12 | 45 | 19.3 | 0.0 | 0.00 | 0.00 | 0.00 | 67 | 1059.9 |
| 20260510135112 | 12 | 22 | 12.9 | 0.0 | 0.00 | 0.00 | 0.00 | 67 | 1059.9 |
| 20260510134959 | 12 | 0 | 14.5 | 0.0 | 0.00 | 0.00 | 0.00 | 68 | 1059.9 |
| 20260510134846 | 12 | 337 | 11.3 | 0.0 | 0.00 | 0.00 | 0.00 | 68 | 1060.0 |
| 20260510134733 | 12 | 0 | 14.5 | 0.0 | 0.00 | 0.00 | 0.00 | 68 | 1059.9 |
| 20260510134620 | 12 | 22 | 9.7 | 0.0 | 0.00 | 0.00 | 0.00 | 68 | 1059.9 |
| 20260510134459 | 12 | 0 | 11.3 | 0.0 | 0.00 | 0.00 | 0.00 | 68 | 1060.0 |
| 20260510134346 | 12 | 45 | 17.7 | 0.0 | 0.00 | 0.00 | 0.00 | 68 | 1060.0 |
| 20260510134241 | 12 | 0 | 14.5 | 0.0 | 0.00 | 0.00 | 0.00 | 69 | 1060.0 |
| 20260510134130 | 12 | 0 | 8.0 | 0.0 | 0.00 | 0.00 | 0.00 | 69 | 1060.1 |
| 20260510134023 | 13 | 45 | 11.3 | 0.0 | 0.00 | 0.00 | 0.00 | 68 | 1060.0 |
| 20260510133919 | 13 | 45 | 8.0 | 0.0 | 0.00 | 0.00 | 0.00 | 68 | 1060.1 |
| 20260510133812 | 13 | 337 | 14.5 | 0.0 | 0.00 | 0.00 | 0.00 | 69 | 1060.1 |
| 20260510133652 | 13 | 0 | 22.5 | 0.0 | 0.00 | 0.00 | 0.00 | 69 | 1060.0 |
| 20260510133547 | 13 | 22 | 6.4 | 0.0 | 0.00 | 0.00 | 0.00 | 69 | 1060.1 |
| 20260510133442 | 13 | 45 | 0.0 | 0.0 | 0.00 | 0.00 | 0.00 | 68 | 1060.1 |
| 20260510133337 | 13 | 22 | 8.0 | 0.0 | 0.00 | 0.00 | 0.00 | 68 | 1060.0 |
| 20260510133226 | 13 | 22 | 9.7 | 0.0 | 0.00 | 0.00 | 0.00 | 68 | 1060.0 |
| 20260510133118 | 12 | 22 | 17.7 | 0.0 | 0.00 | 0.00 | 0.00 | 68 | 1060.1 |
| 20260510133006 | 12 | 0 | 0.0 | 0.0 | 0.00 | 0.00 | 0.00 | 68 | 1060.0 |
| 20260510132900 | 12 | 22 | 25.7 | 0.0 | 0.00 | 0.00 | 0.00 | 67 | 1060.1 |
| 20260510132740 | 12 | 45 | 24.1 | 0.0 | 0.00 | 0.00 | 0.00 | 67 | 1060.1 |
| 20260510132634 | 12 | 67 | 22.5 | 0.0 | 0.00 | 0.00 | 0.00 | 66 | 1060.1 |
| 20260510132529 | 12 | 45 | 17.7 | 0.0 | 0.00 | 0.00 | 0.00 | 66 | 1060.2 |
| 20260510132407 | 12 | 22 | 19.3 | 0.0 | 0.00 | 0.00 | 0.00 | 66 | 1060.2 |
| 20260510132247 | 13 | 22 | 27.4 | 0.0 | 0.00 | 0.00 | 0.00 | 66 | 1060.1 |
| 20260510132141 | 13 | 0 | 12.9 | 0.0 | 0.00 | 0.00 | 0.00 | 67 | 1060.2 |
| 20260510132030 | 13 | 22 | 14.5 | 0.0 | 0.00 | 0.00 | 0.00 | 66 | 1060.1 |
| 20260510131915 | 13 | 0 | 24.1 | 0.0 | 0.00 | 0.00 | 0.00 | 66 | 1060.2 |
| 20260510131754 | 13 | 22 | 11.3 | 0.0 | 0.00 | 0.00 | 0.00 | 66 | 1060.2 |
| 20260510131632 | 12 | 337 | 9.7 | 0.0 | 0.00 | 0.00 | 0.00 | 67 | 1060.2 |
| 20260510131511 | 12 | 315 | 14.5 | 0.0 | 0.00 | 0.00 | 0.00 | 67 | 1060.2 |
| 20260510131350 | 12 | 22 | 8.0 | 0.0 | 0.00 | 0.00 | 0.00 | 67 | 1060.2 |
| 20260510131228 | 12 | 22 | 24.1 | 0.0 | 0.00 | 0.00 | 0.00 | 67 | 1060.2 |
| 20260510131116 | 12 | 22 | 17.7 | 0.0 | 0.00 | 0.00 | 0.00 | 66 | 1060.2 |
| 20260510131003 | 12 | 22 | 14.5 | 0.0 | 0.00 | 0.00 | 0.00 | 65 | 1060.3 |
| 20260510130852 | 12 | 0 | 20.9 | 0.0 | 0.00 | 0.00 | 0.00 | 65 | 1060.2 |
| 20260510130747 | 12 | 22 | 4.8 | 0.0 | 0.00 | 0.00 | 0.00 | 66 | 1060.3 |
| 20260510130640 | 13 | 0 | 11.3 | 0.0 | 0.00 | 0.00 | 0.00 | 65 | 1060.3 |
| 20260510130527 | 13 | 22 | 25.7 | 0.0 | 0.00 | 0.00 | 0.00 | 66 | 1060.3 |
| 20260510130423 | 12 | 45 | 9.7 | 0.0 | 0.00 | 0.00 | 0.00 | 66 | 1060.3 |
| 20260510130318 | 12 | 0 | 17.7 | 0.0 | 0.00 | 0.00 | 0.00 | 67 | 1060.4 |
| 20260510130212 | 12 | 67 | 14.5 | 0.0 | 0.00 | 0.00 | 0.00 | 66 | 1060.4 |
| 20260510130101 | 12 | 337 | 14.5 | 0.0 | 0.00 | 0.00 | 0.00 | 66 | 1060.4 |
| 20260510125956 | 12 | 0 | 6.4 | 0.0 | 0.00 | 0.00 | 0.00 | 65 | 1060.4 |
| 20260510125849 | 12 | 45 | 16.1 | 0.0 | 0.00 | 0.00 | 0.00 | 66 | 1060.5 |
| 20260510125736 | 12 | 0 | 24.1 | 0.0 | 0.00 | 0.00 | 0.00 | 65 | 1060.5 |
| 20260510125625 | 12 | 337 | 20.9 | 0.0 | 0.00 | 0.00 | 0.00 | 65 | 1060.4 |
| 20260510125517 | 12 | 22 | 20.9 | 0.0 | 0.00 | 0.00 | 0.00 | 65 | 1060.5 |
| 20260510125406 | 12 | 45 | 16.1 | 0.0 | 0.00 | 0.00 | 0.00 | 65 | 1060.4 |
| 20260510125300 | 12 | 22 | 20.9 | 0.0 | 0.00 | 0.00 | 0.00 | 66 | 1060.4 |
| 20260510125155 | 12 | 0 | 14.5 | 0.0 | 0.00 | 0.00 | 0.00 | 66 | 1060.5 |
| 20260510125043 | 12 | 0 | 6.4 | 0.0 | 0.00 | 0.00 | 0.00 | 66 | 1060.5 |
| 20260510124917 | 12 | 22 | 27.4 | 0.0 | 0.00 | 0.00 | 0.00 | 66 | 1060.5 |
| 20260510124801 | 12 | 0 | 9.7 | 0.0 | 0.00 | 0.00 | 0.00 | 66 | 1060.5 |
| 20260510124632 | 13 | 45 | 20.9 | 0.0 | 0.00 | 0.00 | 0.00 | 66 | 1060.6 |
| 20260510124500 | 13 | 22 | 16.1 | 0.0 | 0.00 | 0.00 | 0.00 | 66 | 1060.5 |
| 20260510124347 | 13 | 337 | 22.5 | 0.0 | 0.00 | 0.00 | 0.00 | 66 | 1060.5 |
| 20260510124218 | 13 | 0 | 17.7 | 0.0 | 0.00 | 0.00 | 0.00 | 66 | 1060.6 |
| 20260510124105 | 13 | 45 | 14.5 | 0.0 | 0.00 | 0.00 | 0.00 | 66 | 1060.5 |
| 20260510124001 | 13 | 0 | 12.9 | 0.0 | 0.00 | 0.00 | 0.00 | 66 | 1060.6 |
| 20260510123839 | 13 | 0 | 11.3 | 0.0 | 0.00 | 0.00 | 0.00 | 66 | 1060.5 |
| 20260510123725 | 13 | 45 | 8.0 | 0.0 | 0.00 | 0.00 | 0.00 | 68 | 1060.5 |
| 20260510123613 | 13 | 337 | 9.7 | 0.0 | 0.00 | 0.00 | 0.00 | 69 | 1060.5 |
| 20260510123507 | 13 | 45 | 17.7 | 0.0 | 0.00 | 0.00 | 0.00 | 68 | 1060.5 |
| 20260510123354 | 13 | 45 | 20.9 | 0.0 | 0.00 | 0.00 | 0.00 | 68 | 1060.5 |
| 20260510123233 | 13 | 22 | 20.9 | 0.0 | 0.00 | 0.00 | 0.00 | 68 | 1060.5 |
| 20260510123119 | 13 | 0 | 19.3 | 0.0 | 0.00 | 0.00 | 0.00 | 67 | 1060.5 |
| 20260510122959 | 13 | 0 | 12.9 | 0.0 | 0.00 | 0.00 | 0.00 | 67 | 1060.6 |
| 20260510122845 | 13 | 45 | 14.5 | 0.0 | 0.00 | 0.00 | 0.00 | 67 | 1060.6 |
| 20260510122733 | 13 | 22 | 12.9 | 0.0 | 0.00 | 0.00 | 0.00 | 67 | 1060.5 |
| 20260510122628 | 13 | 22 | 11.3 | 0.0 | 0.00 | 0.00 | 0.00 | 68 | 1060.5 |
| 20260510122523 | 13 | 337 | 14.5 | 0.0 | 0.00 | 0.00 | 0.00 | 68 | 1060.6 |
| 20260510122417 | 13 | 0 | 11.3 | 0.0 | 0.00 | 0.00 | 0.00 | 68 | 1060.6 |
| 20260510122256 | 13 | 22 | 20.9 | 0.0 | 0.00 | 0.00 | 0.00 | 68 | 1060.6 |
| 20260510122143 | 13 | 0 | 8.0 | 0.0 | 0.00 | 0.00 | 0.00 | 68 | 1060.6 |
| 20260510122030 | 13 | 22 | 6.4 | 0.0 | 0.00 | 0.00 | 0.00 | 68 | 1060.5 |
| 20260510121926 | 13 | 0 | 4.8 | 0.0 | 0.00 | 0.00 | 0.00 | 67 | 1060.6 |
| 20260510121819 | 13 | 315 | 11.3 | 0.0 | 0.00 | 0.00 | 0.00 | 67 | 1060.5 |
| 20260510121706 | 13 | 337 | 16.1 | 0.0 | 0.00 | 0.00 | 0.00 | 68 | 1060.6 |
| 20260510121554 | 13 | 22 | 16.1 | 0.0 | 0.00 | 0.00 | 0.00 | 68 | 1060.6 |
| 20260510121441 | 13 | 45 | 12.9 | 0.0 | 0.00 | 0.00 | 0.00 | 67 | 1060.6 |
| 20260510121337 | 13 | 0 | 11.3 | 0.0 | 0.00 | 0.00 | 0.00 | 67 | 1060.6 |
| 20260510121230 | 13 | 22 | 12.9 | 0.0 | 0.00 | 0.00 | 0.00 | 67 | 1060.7 |
| 20260510121117 | 13 | 22 | 9.7 | 0.0 | 0.00 | 0.00 | 0.00 | 67 | 1060.6 |
| 20260510120956 | 13 | 0 | 6.4 | 0.0 | 0.00 | 0.00 | 0.00 | 67 | 1060.7 |
| 20260510120843 | 13 | 22 | 12.9 | 0.0 | 0.00 | 0.00 | 0.00 | 66 | 1060.6 |
| 20260510120731 | 13 | 337 | 12.9 | 0.0 | 0.00 | 0.00 | 0.00 | 65 | 1060.6 |
| 20260510120625 | 13 | 22 | 17.7 | 0.0 | 0.00 | 0.00 | 0.00 | 65 | 1060.6 |
| 20260510120520 | 13 | 45 | 25.7 | 0.0 | 0.00 | 0.00 | 0.00 | 65 | 1060.7 |
| 20260510120358 | 13 | 0 | 9.7 | 0.0 | 0.00 | 0.00 | 0.00 | 65 | 1060.7 |
| 20260510120253 | 14 | 67 | 20.9 | 0.0 | 0.00 | 0.00 | 0.00 | 65 | 1060.7 |
| 20260510120139 | 14 | 0 | 14.5 | 0.0 | 0.00 | 0.00 | 0.00 | 64 | 1060.7 |
| 20260510120027 | 14 | 45 | 16.1 | 0.0 | 0.00 | 0.00 | 0.00 | 65 | 1060.7 |
| 20260510115921 | 14 | 22 | 12.9 | 0.0 | 0.00 | 0.00 | 0.00 | 65 | 1060.6 |
| 20260510115816 | 14 | 67 | 25.7 | 0.0 | 0.00 | 0.00 | 0.00 | 64 | 1060.6 |
| 20260510115657 | 14 | 0 | 25.7 | 0.0 | 0.00 | 0.00 | 0.00 | 64 | 1060.6 |
| 20260510115550 | 14 | 22 | 9.7 | 0.0 | 0.00 | 0.00 | 0.00 | 64 | 1060.6 |
| 20260510115436 | 15 | 0 | 25.7 | 0.0 | 0.00 | 0.00 | 0.00 | 63 | 1060.7 |
| 20260510115323 | 15 | 0 | 11.3 | 0.0 | 0.00 | 0.00 | 0.00 | 63 | 1060.6 |
| 20260510115211 | 15 | 45 | 20.9 | 0.0 | 0.00 | 0.00 | 0.00 | 64 | 1060.7 |
| 20260510115106 | 14 | 0 | 33.8 | 0.0 | 0.00 | 0.00 | 0.00 | 66 | 1060.6 |
| 20260510114959 | 14 | 0 | 9.7 | 0.0 | 0.00 | 0.00 | 0.00 | 66 | 1060.7 |
| 20260510114846 | 13 | 315 | 20.9 | 0.0 | 0.00 | 0.00 | 0.00 | 66 | 1060.7 |
| 20260510114733 | 13 | 45 | 24.1 | 0.0 | 0.00 | 0.00 | 0.00 | 67 | 1060.7 |
| 20260510114614 | 13 | 45 | 11.3 | 0.0 | 0.00 | 0.00 | 0.00 | 67 | 1060.7 |
| 20260510114507 | 13 | 0 | 19.3 | 0.0 | 0.00 | 0.00 | 0.00 | 67 | 1060.7 |
| 20260510114402 | 13 | 0 | 8.0 | 0.0 | 0.00 | 0.00 | 0.00 | 68 | 1060.7 |
| 20260510114249 | 13 | 0 | 9.7 | 0.0 | 0.00 | 0.00 | 0.00 | 67 | 1060.7 |
| 20260510114136 | 13 | 0 | 25.7 | 0.0 | 0.00 | 0.00 | 0.00 | 68 | 1060.8 |
| 20260510114016 | 13 | 22 | 17.7 | 0.0 | 0.00 | 0.00 | 0.00 | 68 | 1060.7 |
| 20260510113902 | 13 | 0 | 12.9 | 0.0 | 0.00 | 0.00 | 0.00 | 67 | 1060.7 |
| 20260510113757 | 13 | 337 | 14.5 | 0.0 | 0.00 | 0.00 | 0.00 | 67 | 1060.7 |
| 20260510113654 | 14 | 22 | 11.3 | 0.0 | 0.00 | 0.00 | 0.00 | 67 | 1060.7 |
| 20260510113548 | 14 | 0 | 11.3 | 0.0 | 0.00 | 0.00 | 0.00 | 68 | 1060.7 |
| 20260510113433 | 13 | 337 | 17.7 | 0.0 | 0.00 | 0.00 | 0.00 | 67 | 1060.7 |
| 20260510113320 | 13 | 45 | 29.0 | 0.0 | 0.00 | 0.00 | 0.00 | 67 | 1060.7 |
| 20260510113215 | 13 | 67 | 11.3 | 0.0 | 0.00 | 0.00 | 0.00 | 68 | 1060.7 |
| 20260510113102 | 13 | 22 | 16.1 | 0.0 | 0.00 | 0.00 | 0.00 | 68 | 1060.8 |
| 20260510112952 | 13 | 45 | 19.3 | 0.0 | 0.00 | 0.00 | 0.00 | 68 | 1060.7 |
| 20260510112844 | 13 | 22 | 12.9 | 0.0 | 0.00 | 0.00 | 0.00 | 68 | 1060.7 |
| 20260510112731 | 13 | 90 | 24.1 | 0.0 | 0.00 | 0.00 | 0.00 | 67 | 1060.7 |
| 20260510112618 | 13 | 0 | 16.1 | 0.0 | 0.00 | 0.00 | 0.00 | 68 | 1060.7 |
| 20260510112456 | 13 | 0 | 9.7 | 0.0 | 0.00 | 0.00 | 0.00 | 68 | 1060.7 |
| 20260510112344 | 13 | 45 | 27.4 | 0.0 | 0.00 | 0.00 | 0.00 | 68 | 1060.7 |
| 20260510112230 | 13 | 0 | 16.1 | 0.0 | 0.00 | 0.00 | 0.00 | 69 | 1060.8 |
| 20260510112112 | 13 | 22 | 19.3 | 0.0 | 0.00 | 0.00 | 0.00 | 69 | 1060.8 |
| 20260510112004 | 13 | 315 | 19.3 | 0.0 | 0.00 | 0.00 | 0.00 | 70 | 1060.7 |
| 20260510111851 | 13 | 22 | 24.1 | 0.0 | 0.00 | 0.00 | 0.00 | 70 | 1060.8 |
| 20260510111738 | 13 | 22 | 24.1 | 0.0 | 0.00 | 0.00 | 0.00 | 70 | 1060.7 |
| 20260510111633 | 13 | 67 | 4.8 | 0.0 | 0.00 | 0.00 | 0.00 | 70 | 1060.7 |
| 20260510111522 | 13 | 0 | 24.1 | 0.0 | 0.00 | 0.00 | 0.00 | 70 | 1060.7 |
| 20260510111416 | 13 | 22 | 24.1 | 0.0 | 0.00 | 0.00 | 0.00 | 70 | 1060.7 |
| 20260510111301 | 13 | 0 | 8.0 | 0.0 | 0.00 | 0.00 | 0.00 | 70 | 1060.8 |
| 20260510111149 | 13 | 22 | 20.9 | 0.0 | 0.00 | 0.00 | 0.00 | 70 | 1060.8 |
| 20260510111035 | 13 | 22 | 14.5 | 0.0 | 0.00 | 0.00 | 0.00 | 69 | 1060.7 |
| 20260510110906 | 13 | 45 | 16.1 | 0.0 | 0.00 | 0.00 | 0.00 | 68 | 1060.8 |
| 20260510110753 | 13 | 22 | 11.3 | 0.0 | 0.00 | 0.00 | 0.00 | 67 | 1060.8 |
| 20260510110649 | 13 | 67 | 20.9 | 0.0 | 0.00 | 0.00 | 0.00 | 68 | 1060.8 |
| 20260510110537 | 13 | 0 | 22.5 | 0.0 | 0.00 | 0.00 | 0.00 | 68 | 1060.7 |
| 20260510110422 | 14 | 45 | 17.7 | 0.0 | 0.00 | 0.00 | 0.00 | 68 | 1060.8 |
| 20260510110309 | 14 | 45 | 11.3 | 0.0 | 0.00 | 0.00 | 0.00 | 68 | 1060.9 |
| 20260510110156 | 14 | 0 | 14.5 | 0.0 | 0.00 | 0.00 | 0.00 | 68 | 1060.9 |
| 20260510110042 | 14 | 22 | 30.6 | 0.0 | 0.00 | 0.00 | 0.00 | 67 | 1060.9 |
| 20260510105913 | 14 | 0 | 17.7 | 0.0 | 0.00 | 0.00 | 0.00 | 67 | 1060.9 |
| 20260510105743 | 14 | 22 | 24.1 | 0.0 | 0.00 | 0.00 | 0.00 | 67 | 1060.9 |
| 20260510105624 | 14 | 22 | 8.0 | 0.0 | 0.00 | 0.00 | 0.00 | 67 | 1060.8 |
| 20260510105512 | 14 | 22 | 14.5 | 0.0 | 0.00 | 0.00 | 0.00 | 67 | 1060.9 |
| 20260510105406 | 14 | 0 | 19.3 | 0.0 | 0.00 | 0.00 | 0.00 | 66 | 1060.9 |
| 20260510105253 | 14 | 315 | 9.7 | 0.0 | 0.00 | 0.00 | 0.00 | 66 | 1060.9 |
| 20260510105132 | 14 | 22 | 19.3 | 0.0 | 0.00 | 0.00 | 0.00 | 68 | 1060.8 |
| 20260510105017 | 14 | 67 | 8.0 | 0.0 | 0.00 | 0.00 | 0.00 | 68 | 1060.8 |
| 20260510104904 | 14 | 337 | 20.9 | 0.0 | 0.00 | 0.00 | 0.00 | 67 | 1060.8 |
| 20260510104753 | 14 | 22 | 25.7 | 0.0 | 0.00 | 0.00 | 0.00 | 68 | 1060.8 |
| 20260510104645 | 14 | 90 | 12.9 | 0.0 | 0.00 | 0.00 | 0.00 | 68 | 1060.8 |
| 20260510104526 | 14 | 45 | 20.9 | 0.0 | 0.00 | 0.00 | 0.00 | 68 | 1060.7 |
| 20260510104420 | 14 | 337 | 12.9 | 0.0 | 0.00 | 0.00 | 0.00 | 68 | 1060.8 |
| 20260510104308 | 14 | 0 | 14.5 | 0.0 | 0.00 | 0.00 | 0.00 | 68 | 1060.8 |
| 20260510104201 | 14 | 337 | 8.0 | 0.0 | 0.00 | 0.00 | 0.00 | 68 | 1060.8 |
| 20260510104048 | 14 | 22 | 16.1 | 0.0 | 0.00 | 0.00 | 0.00 | 68 | 1060.8 |
| 20260510103943 | 14 | 337 | 9.7 | 0.0 | 0.00 | 0.00 | 0.00 | 68 | 1060.8 |
| 20260510103821 | 14 | 0 | 11.3 | 0.0 | 0.00 | 0.00 | 0.00 | 68 | 1060.8 |
| 20260510103701 | 14 | 22 | 17.7 | 0.0 | 0.00 | 0.00 | 0.00 | 67 | 1060.9 |
| 20260510103547 | 14 | 22 | 16.1 | 0.0 | 0.00 | 0.00 | 0.00 | 67 | 1060.9 |
| 20260510103418 | 15 | 315 | 9.7 | 0.0 | 0.00 | 0.00 | 0.00 | 66 | 1060.9 |
| 20260510103256 | 15 | 22 | 16.1 | 0.0 | 0.00 | 0.00 | 0.00 | 66 | 1060.9 |
| 20260510103136 | 15 | 45 | 16.1 | 0.0 | 0.00 | 0.00 | 0.00 | 66 | 1060.9 |
| 20260510103014 | 15 | 22 | 24.1 | 0.0 | 0.00 | 0.00 | 0.00 | 67 | 1060.9 |
| 20260510102853 | 15 | 22 | 33.8 | 0.0 | 0.00 | 0.00 | 0.00 | 68 | 1060.9 |
| 20260510102734 | 14 | 0 | 27.4 | 0.0 | 0.00 | 0.00 | 0.00 | 68 | 1060.9 |
| 20260510102628 | 14 | 0 | 9.7 | 0.0 | 0.00 | 0.00 | 0.00 | 68 | 1060.8 |
| 20260510102522 | 14 | 22 | 14.5 | 0.0 | 0.00 | 0.00 | 0.00 | 69 | 1060.9 |
| 20260510102409 | 14 | 0 | 14.5 | 0.0 | 0.00 | 0.00 | 0.00 | 69 | 1060.8 |
| 20260510102247 | 14 | 0 | 9.7 | 0.0 | 0.00 | 0.00 | 0.00 | 68 | 1060.8 |
| 20260510102127 | 15 | 337 | 12.9 | 0.0 | 0.00 | 0.00 | 0.00 | 67 | 1060.8 |
| 20260510102013 | 15 | 45 | 11.3 | 0.0 | 0.00 | 0.00 | 0.00 | 66 | 1060.9 |
| 20260510101854 | 15 | 0 | 19.3 | 0.0 | 0.00 | 0.00 | 0.00 | 65 | 1060.9 |
| 20260510101747 | 15 | 45 | 16.1 | 0.0 | 0.00 | 0.00 | 0.00 | 65 | 1060.9 |
| 20260510101625 | 15 | 22 | 22.5 | 0.0 | 0.00 | 0.00 | 0.00 | 65 | 1060.9 |
| 20260510101514 | 15 | 45 | 12.9 | 0.0 | 0.00 | 0.00 | 0.00 | 67 | 1060.8 |
| 20260510101407 | 15 | 45 | 25.7 | 0.0 | 0.00 | 0.00 | 0.00 | 67 | 1060.9 |
| 20260510101248 | 15 | 0 | 12.9 | 0.0 | 0.00 | 0.00 | 0.00 | 68 | 1060.8 |
| 20260510101141 | 14 | 22 | 11.3 | 0.0 | 0.00 | 0.00 | 0.00 | 69 | 1060.8 |
| 20260510101028 | 14 | 22 | 9.7 | 0.0 | 0.00 | 0.00 | 0.00 | 68 | 1060.7 |
| 20260510100923 | 14 | 22 | 17.7 | 0.0 | 0.00 | 0.00 | 0.00 | 68 | 1060.8 |
| 20260510100801 | 14 | 22 | 22.5 | 0.0 | 0.00 | 0.00 | 0.00 | 68 | 1060.8 |
| 20260510100650 | 15 | 0 | 14.5 | 0.0 | 0.00 | 0.00 | 0.00 | 68 | 1060.7 |
| 20260510100543 | 15 | 0 | 4.8 | 0.0 | 0.00 | 0.00 | 0.00 | 67 | 1060.8 |
| 20260510100430 | 15 | 337 | 9.7 | 0.0 | 0.00 | 0.00 | 0.00 | 68 | 1060.7 |
| 20260510100311 | 15 | 22 | 8.0 | 0.0 | 0.00 | 0.00 | 0.00 | 68 | 1060.7 |
| 20260510100156 | 15 | 0 | 19.3 | 0.0 | 0.00 | 0.00 | 0.00 | 67 | 1060.7 |
| 20260510100043 | 15 | 270 | 20.9 | 0.0 | 0.00 | 0.00 | 0.00 | 66 | 1060.7 |
| 20260510095938 | 15 | 0 | 12.9 | 0.0 | 0.00 | 0.00 | 0.00 | 67 | 1060.7 |
| 20260510095825 | 15 | 22 | 4.8 | 0.0 | 0.00 | 0.00 | 0.00 | 66 | 1060.7 |
| 20260510095713 | 15 | 22 | 9.7 | 0.0 | 0.00 | 0.00 | 0.00 | 66 | 1060.7 |
| 20260510095607 | 15 | 0 | 11.3 | 0.0 | 0.00 | 0.00 | 0.00 | 66 | 1060.6 |
| 20260510095454 | 15 | 45 | 11.3 | 0.0 | 0.00 | 0.00 | 0.00 | 66 | 1060.7 |
| 20260510095331 | 15 | 337 | 11.3 | 0.0 | 0.00 | 0.00 | 0.00 | 65 | 1060.7 |
| 20260510095213 | 15 | 0 | 8.0 | 0.0 | 0.00 | 0.00 | 0.00 | 66 | 1060.7 |
| 20260510095106 | 15 | 22 | 17.7 | 0.0 | 0.00 | 0.00 | 0.00 | 66 | 1060.7 |
| 20260510094944 | 15 | 45 | 16.1 | 0.0 | 0.00 | 0.00 | 0.00 | 66 | 1060.6 |
| 20260510094823 | 15 | 22 | 12.9 | 0.0 | 0.00 | 0.00 | 0.00 | 66 | 1060.6 |
| 20260510094702 | 15 | 337 | 11.3 | 0.0 | 0.00 | 0.00 | 0.00 | 66 | 1060.6 |
| 20260510094541 | 15 | 0 | 12.9 | 0.0 | 0.00 | 0.00 | 0.00 | 67 | 1060.5 |
| 20260510094428 | 15 | 0 | 9.7 | 0.0 | 0.00 | 0.00 | 0.00 | 68 | 1060.6 |
| 20260510094314 | 15 | 22 | 9.7 | 0.0 | 0.00 | 0.00 | 0.00 | 68 | 1060.6 |
| 20260510094155 | 15 | 0 | 16.1 | 0.0 | 0.00 | 0.00 | 0.00 | 68 | 1060.6 |
| 20260510094048 | 15 | 22 | 3.2 | 0.0 | 0.00 | 0.00 | 0.00 | 68 | 1060.7 |
| 20260510093927 | 15 | 337 | 9.7 | 0.0 | 0.00 | 0.00 | 0.00 | 66 | 1060.7 |
| 20260510093805 | 15 | 22 | 11.3 | 0.0 | 0.00 | 0.00 | 0.00 | 66 | 1060.7 |
| 20260510093639 | 15 | 0 | 9.7 | 0.0 | 0.00 | 0.00 | 0.00 | 66 | 1060.7 |
| 20260510093531 | 15 | 0 | 17.7 | 0.0 | 0.00 | 0.00 | 0.00 | 65 | 1060.7 |
| 20260510093411 | 15 | 22 | 29.0 | 0.0 | 0.00 | 0.00 | 0.00 | 65 | 1060.7 |
| 20260510093305 | 15 | 0 | 8.0 | 0.0 | 0.00 | 0.00 | 0.00 | 65 | 1060.7 |
| 20260510093200 | 15 | 0 | 11.3 | 0.0 | 0.00 | 0.00 | 0.00 | 65 | 1060.7 |
| 20260510093047 | 15 | 337 | 16.1 | 0.0 | 0.00 | 0.00 | 0.00 | 65 | 1060.7 |
| 20260510092932 | 15 | 0 | 17.7 | 0.0 | 0.00 | 0.00 | 0.00 | 65 | 1060.7 |
| 20260510092813 | 16 | 22 | 12.9 | 0.0 | 0.00 | 0.00 | 0.00 | 64 | 1060.7 |
| 20260510092659 | 16 | 0 | 14.5 | 0.0 | 0.00 | 0.00 | 0.00 | 64 | 1060.7 |
| 20260510092546 | 16 | 0 | 17.7 | 0.0 | 0.00 | 0.00 | 0.00 | 63 | 1060.7 |
| 20260510092433 | 16 | 315 | 12.9 | 0.0 | 0.00 | 0.00 | 0.00 | 64 | 1060.7 |
| 20260510092320 | 16 | 45 | 12.9 | 0.0 | 0.00 | 0.00 | 0.00 | 64 | 1060.8 |
| 20260510092214 | 16 | 22 | 22.5 | 0.0 | 0.00 | 0.00 | 0.00 | 65 | 1060.8 |
| 20260510092053 | 16 | 45 | 16.1 | 0.0 | 0.00 | 0.00 | 0.00 | 64 | 1060.7 |
| 20260510091932 | 16 | 45 | 11.3 | 0.0 | 0.00 | 0.00 | 0.00 | 63 | 1060.7 |
| 20260510091826 | 16 | 22 | 17.7 | 0.0 | 0.00 | 0.00 | 0.00 | 63 | 1060.8 |
| 20260510091708 | 16 | 0 | 17.7 | 0.0 | 0.00 | 0.00 | 0.00 | 63 | 1060.7 |
| 20260510091601 | 16 | 22 | 16.1 | 0.0 | 0.00 | 0.00 | 0.00 | 63 | 1060.8 |
| 20260510091449 | 16 | 0 | 14.5 | 0.0 | 0.00 | 0.00 | 0.00 | 63 | 1060.8 |
| 20260510091345 | 16 | 0 | 6.4 | 0.0 | 0.00 | 0.00 | 0.00 | 64 | 1060.8 |
| 20260510091237 | 16 | 337 | 19.3 | 0.0 | 0.00 | 0.00 | 0.00 | 63 | 1060.9 |
| 20260510091124 | 16 | 0 | 9.7 | 0.0 | 0.00 | 0.00 | 0.00 | 63 | 1060.9 |
| 20260510091019 | 16 | 0 | 19.3 | 0.0 | 0.00 | 0.00 | 0.00 | 63 | 1060.8 |
| 20260510090859 | 16 | 45 | 9.7 | 0.0 | 0.00 | 0.00 | 0.00 | 63 | 1060.8 |
| 20260510090745 | 16 | 0 | 11.3 | 0.0 | 0.00 | 0.00 | 0.00 | 64 | 1060.8 |
| 20260510090615 | 16 | 22 | 16.1 | 0.0 | 0.00 | 0.00 | 0.00 | 65 | 1060.8 |
| 20260510090454 | 16 | 0 | 16.1 | 0.0 | 0.00 | 0.00 | 0.00 | 64 | 1060.8 |
| 20260510090325 | 16 | 45 | 17.7 | 0.0 | 0.00 | 0.00 | 0.00 | 63 | 1060.8 |
| 20260510090213 | 16 | 67 | 19.3 | 0.0 | 0.00 | 0.00 | 0.00 | 62 | 1060.8 |
| 20260510090106 | 16 | 0 | 9.7 | 0.0 | 0.00 | 0.00 | 0.00 | 62 | 1060.8 |
| 20260510085945 | 16 | 22 | 19.3 | 0.0 | 0.00 | 0.00 | 0.00 | 63 | 1060.8 |
| 20260510085824 | 16 | 45 | 14.5 | 0.0 | 0.00 | 0.00 | 0.00 | 62 | 1060.9 |
| 20260510085710 | 16 | 22 | 14.5 | 0.0 | 0.00 | 0.00 | 0.00 | 62 | 1060.8 |
| 20260510085542 | 16 | 337 | 12.9 | 0.0 | 0.00 | 0.00 | 0.00 | 62 | 1060.9 |
| 20260510085422 | 16 | 45 | 17.7 | 0.0 | 0.00 | 0.00 | 0.00 | 61 | 1060.9 |
| 20260510085310 | 16 | 337 | 11.3 | 0.0 | 0.00 | 0.00 | 0.00 | 61 | 1060.7 |
| 20260510085202 | 16 | 0 | 9.7 | 0.0 | 0.00 | 0.00 | 0.00 | 61 | 1060.8 |
| 20260510085041 | 16 | 45 | 12.9 | 0.0 | 0.00 | 0.00 | 0.00 | 62 | 1060.8 |
| 20260510084920 | 16 | 22 | 14.5 | 0.0 | 0.00 | 0.00 | 0.00 | 63 | 1060.7 |
| 20260510084806 | 16 | 0 | 3.2 | 0.0 | 0.00 | 0.00 | 0.00 | 63 | 1060.8 |
| 20260510084645 | 16 | 337 | 11.3 | 0.0 | 0.00 | 0.00 | 0.00 | 63 | 1060.8 |
| 20260510084524 | 16 | 22 | 9.7 | 0.0 | 0.00 | 0.00 | 0.00 | 63 | 1060.9 |
| 20260510084419 | 16 | 0 | 8.0 | 0.0 | 0.00 | 0.00 | 0.00 | 63 | 1060.8 |
| 20260510084300 | 16 | 45 | 25.7 | 0.0 | 0.00 | 0.00 | 0.00 | 62 | 1060.8 |
| 20260510084148 | 16 | 22 | 6.4 | 0.0 | 0.00 | 0.00 | 0.00 | 62 | 1060.8 |
| 20260510084042 | 16 | 45 | 20.9 | 0.0 | 0.00 | 0.00 | 0.00 | 62 | 1060.8 |
| 20260510083935 | 16 | 22 | 12.9 | 0.0 | 0.00 | 0.00 | 0.00 | 62 | 1060.8 |
| 20260510083816 | 16 | 67 | 6.4 | 0.0 | 0.00 | 0.00 | 0.00 | 62 | 1060.7 |
| 20260510083708 | 16 | 45 | 14.5 | 0.0 | 0.00 | 0.00 | 0.00 | 62 | 1060.8 |
| 20260510083547 | 16 | 0 | 11.3 | 0.0 | 0.00 | 0.00 | 0.00 | 63 | 1060.8 |
| 20260510083420 | 16 | 315 | 12.9 | 0.0 | 0.00 | 0.00 | 0.00 | 63 | 1060.8 |
| 20260510083313 | 15 | 0 | 6.4 | 0.0 | 0.00 | 0.00 | 0.00 | 64 | 1060.8 |
| 20260510083143 | 15 | 45 | 14.5 | 0.0 | 0.00 | 0.00 | 0.00 | 64 | 1060.8 |
| 20260510083022 | 15 | 337 | 11.3 | 0.0 | 0.00 | 0.00 | 0.00 | 64 | 1060.8 |
| 20260510082909 | 15 | 45 | 9.7 | 0.0 | 0.00 | 0.00 | 0.00 | 63 | 1060.8 |
| 20260510082756 | 15 | 45 | 11.3 | 0.0 | 0.00 | 0.00 | 0.00 | 63 | 1060.9 |
| 20260510082643 | 15 | 0 | 17.7 | 0.0 | 0.00 | 0.00 | 0.00 | 64 | 1060.9 |
| 20260510082523 | 15 | 22 | 11.3 | 0.0 | 0.00 | 0.00 | 0.00 | 64 | 1060.9 |
| 20260510082408 | 15 | 22 | 14.5 | 0.0 | 0.00 | 0.00 | 0.00 | 65 | 1060.9 |
| 20260510082257 | 15 | 0 | 12.9 | 0.0 | 0.00 | 0.00 | 0.00 | 67 | 1060.9 |
| 20260510082150 | 15 | 45 | 8.0 | 0.0 | 0.00 | 0.00 | 0.00 | 67 | 1060.9 |
| 20260510082038 | 15 | 0 | 8.0 | 0.0 | 0.00 | 0.00 | 0.00 | 66 | 1060.9 |
| 20260510081924 | 15 | 0 | 14.5 | 0.0 | 0.00 | 0.00 | 0.00 | 66 | 1060.9 |
| 20260510081756 | 14 | 22 | 6.4 | 0.0 | 0.00 | 0.00 | 0.00 | 66 | 1060.9 |
| 20260510081652 | 15 | 90 | 9.7 | 0.0 | 0.00 | 0.00 | 0.00 | 66 | 1060.9 |
| 20260510081545 | 15 | 22 | 11.3 | 0.0 | 0.00 | 0.00 | 0.00 | 66 | 1060.8 |
| 20260510081431 | 15 | 22 | 14.5 | 0.0 | 0.00 | 0.00 | 0.00 | 66 | 1060.8 |
| 20260510081303 | 15 | 22 | 16.1 | 0.0 | 0.00 | 0.00 | 0.00 | 65 | 1060.9 |
| 20260510081158 | 15 | 45 | 8.0 | 0.0 | 0.00 | 0.00 | 0.00 | 65 | 1060.9 |
| 20260510081044 | 15 | 22 | 9.7 | 0.0 | 0.00 | 0.00 | 0.00 | 64 | 1060.8 |
| 20260510080932 | 15 | 0 | 9.7 | 0.0 | 0.00 | 0.00 | 0.00 | 63 | 1060.9 |
| 20260510080809 | 15 | 45 | 11.3 | 0.0 | 0.00 | 0.00 | 0.00 | 63 | 1061.0 |
| 20260510080657 | 16 | 0 | 12.9 | 0.0 | 0.00 | 0.00 | 0.00 | 63 | 1061.0 |
| 20260510080552 | 16 | 22 | 9.7 | 0.0 | 0.00 | 0.00 | 0.00 | 64 | 1060.9 |
| 20260510080433 | 15 | 0 | 9.7 | 0.0 | 0.00 | 0.00 | 0.00 | 64 | 1061.0 |
| 20260510080320 | 15 | 337 | 17.7 | 0.0 | 0.00 | 0.00 | 0.00 | 64 | 1060.8 |
| 20260510080214 | 15 | 67 | 14.5 | 0.0 | 0.00 | 0.00 | 0.00 | 64 | 1060.8 |
| 20260510080108 | 15 | 0 | 6.4 | 0.0 | 0.00 | 0.00 | 0.00 | 64 | 1060.8 |
| 20260510075955 | 15 | 0 | 12.9 | 0.0 | 0.00 | 0.00 | 0.00 | 64 | 1060.8 |
| 20260510075835 | 15 | 45 | 9.7 | 0.0 | 0.00 | 0.00 | 0.00 | 65 | 1060.7 |
| 20260510075728 | 15 | 22 | 9.7 | 0.0 | 0.00 | 0.00 | 0.00 | 67 | 1060.8 |
| 20260510075607 | 15 | 337 | 17.7 | 0.0 | 0.00 | 0.00 | 0.00 | 68 | 1060.8 |
| 20260510075438 | 15 | 22 | 14.5 | 0.0 | 0.00 | 0.00 | 0.00 | 69 | 1060.8 |
| 20260510075325 | 15 | 45 | 11.3 | 0.0 | 0.00 | 0.00 | 0.00 | 71 | 1060.8 |
| 20260510075213 | 14 | 0 | 8.0 | 0.0 | 0.00 | 0.00 | 0.00 | 71 | 1060.8 |
| 20260510075107 | 14 | 0 | 6.4 | 0.0 | 0.00 | 0.00 | 0.00 | 71 | 1060.8 |
| 20260510074954 | 13 | 22 | 16.1 | 0.0 | 0.00 | 0.00 | 0.00 | 71 | 1060.8 |
| 20260510074839 | 13 | 22 | 0.0 | 0.0 | 0.00 | 0.00 | 0.00 | 72 | 1060.8 |
| 20260510074726 | 13 | 0 | 11.3 | 0.0 | 0.00 | 0.00 | 0.00 | 72 | 1060.7 |
| 20260510074613 | 13 | 337 | 6.4 | 0.0 | 0.00 | 0.00 | 0.00 | 72 | 1060.8 |
| 20260510074501 | 13 | 22 | 17.7 | 0.0 | 0.00 | 0.00 | 0.00 | 73 | 1060.7 |
| 20260510074357 | 13 | 22 | 11.3 | 0.0 | 0.00 | 0.00 | 0.00 | 73 | 1060.7 |
| 20260510074242 | 13 | 337 | 3.2 | 0.0 | 0.00 | 0.00 | 0.00 | 73 | 1060.7 |
| 20260510074127 | 13 | 22 | 17.7 | 0.0 | 0.00 | 0.00 | 0.00 | 73 | 1060.7 |
| 20260510074002 | 12 | 45 | 0.0 | 0.0 | 0.00 | 0.00 | 0.00 | 72 | 1060.8 |
| 20260510073854 | 12 | 45 | 14.5 | 0.0 | 0.00 | 0.00 | 0.00 | 72 | 1060.8 |
| 20260510073741 | 12 | 0 | 11.3 | 0.0 | 0.00 | 0.00 | 0.00 | 72 | 1060.8 |
| 20260510073627 | 12 | 22 | 12.9 | 0.0 | 0.00 | 0.00 | 0.00 | 72 | 1060.7 |
| 20260510073517 | 12 | 0 | 6.4 | 0.0 | 0.00 | 0.00 | 0.00 | 72 | 1060.8 |
| 20260510073411 | 12 | 22 | 8.0 | 0.0 | 0.00 | 0.00 | 0.00 | 72 | 1060.7 |
| 20260510073308 | 12 | 22 | 11.3 | 0.0 | 0.00 | 0.00 | 0.00 | 72 | 1060.7 |
| 20260510073200 | 12 | 0 | 9.7 | 0.0 | 0.00 | 0.00 | 0.00 | 72 | 1060.7 |
| 20260510073039 | 12 | 22 | 4.8 | 0.0 | 0.00 | 0.00 | 0.00 | 72 | 1060.7 |
| 20260510072925 | 12 | 22 | 11.3 | 0.0 | 0.00 | 0.00 | 0.00 | 72 | 1060.8 |
| 20260510072811 | 12 | 45 | 16.1 | 0.0 | 0.00 | 0.00 | 0.00 | 72 | 1060.7 |
| 20260510072651 | 12 | 45 | 9.7 | 0.0 | 0.00 | 0.00 | 0.00 | 72 | 1060.8 |
| 20260510072545 | 12 | 45 | 4.8 | 0.0 | 0.00 | 0.00 | 0.00 | 72 | 1060.8 |
| 20260510072430 | 12 | 0 | 9.7 | 0.0 | 0.00 | 0.00 | 0.00 | 71 | 1060.8 |
| 20260510072310 | 12 | 22 | 14.5 | 0.0 | 0.00 | 0.00 | 0.00 | 71 | 1060.8 |
| 20260510072157 | 12 | 22 | 11.3 | 0.0 | 0.00 | 0.00 | 0.00 | 71 | 1060.9 |
| 20260510072043 | 12 | 45 | 16.1 | 0.0 | 0.00 | 0.00 | 0.00 | 71 | 1060.9 |
| 20260510071932 | 12 | 22 | 17.7 | 0.0 | 0.00 | 0.00 | 0.00 | 72 | 1060.8 |
| 20260510071826 | 12 | 22 | 11.3 | 0.0 | 0.00 | 0.00 | 0.00 | 72 | 1060.7 |
| 20260510071712 | 12 | 0 | 20.9 | 0.0 | 0.00 | 0.00 | 0.00 | 72 | 1060.8 |
| 20260510071558 | 12 | 67 | 16.1 | 0.0 | 0.00 | 0.00 | 0.00 | 72 | 1060.6 |
| 20260510071446 | 12 | 45 | 12.9 | 0.0 | 0.00 | 0.00 | 0.00 | 72 | 1060.7 |
| 20260510071332 | 12 | 0 | 12.9 | 0.0 | 0.00 | 0.00 | 0.00 | 72 | 1060.7 |
| 20260510071211 | 12 | 45 | 17.7 | 0.0 | 0.00 | 0.00 | 0.00 | 73 | 1060.7 |
| 20260510071051 | 12 | 45 | 17.7 | 0.0 | 0.00 | 0.00 | 0.00 | 74 | 1060.8 |
| 20260510070940 | 12 | 22 | 11.3 | 0.0 | 0.00 | 0.00 | 0.00 | 74 | 1060.7 |
| 20260510070832 | 12 | 22 | 9.7 | 0.0 | 0.00 | 0.00 | 0.00 | 74 | 1060.7 |
| 20260510070719 | 12 | 337 | 8.0 | 0.0 | 0.00 | 0.00 | 0.00 | 74 | 1060.7 |
| 20260510070614 | 12 | 22 | 16.1 | 0.0 | 0.00 | 0.00 | 0.00 | 74 | 1060.7 |
| 20260510070500 | 12 | 22 | 6.4 | 0.0 | 0.00 | 0.00 | 0.00 | 74 | 1060.8 |
| 20260510070342 | 12 | 22 | 12.9 | 0.0 | 0.00 | 0.00 | 0.00 | 74 | 1060.7 |
| 20260510070236 | 12 | 0 | 11.3 | 0.0 | 0.00 | 0.00 | 0.00 | 74 | 1060.8 |
| 20260510070132 | 12 | 337 | 9.7 | 0.0 | 0.00 | 0.00 | 0.00 | 74 | 1060.8 |
| 20260510070028 | 11 | 22 | 12.9 | 0.0 | 0.00 | 0.00 | 0.00 | 74 | 1060.7 |
| 20260510065920 | 11 | 22 | 11.3 | 0.0 | 0.00 | 0.00 | 0.00 | 73 | 1060.7 |
| 20260510065807 | 11 | 45 | 11.3 | 0.0 | 0.00 | 0.00 | 0.00 | 73 | 1060.8 |
| 20260510065653 | 11 | 0 | 4.8 | 0.0 | 0.00 | 0.00 | 0.00 | 73 | 1060.8 |
| 20260510065542 | 11 | 22 | 0.0 | 0.0 | 0.00 | 0.00 | 0.00 | 72 | 1060.7 |
| 20260510065435 | 11 | 22 | 0.0 | 0.0 | 0.00 | 0.00 | 0.00 | 72 | 1060.7 |
| 20260510065323 | 11 | 0 | 3.2 | 0.0 | 0.00 | 0.00 | 0.00 | 72 | 1060.7 |
| 20260510065210 | 11 | 0 | 8.0 | 0.0 | 0.00 | 0.00 | 0.00 | 71 | 1060.7 |
| 20260510065059 | 11 | 0 | 6.4 | 0.0 | 0.00 | 0.00 | 0.00 | 71 | 1060.6 |
| 20260510064954 | 11 | 22 | 19.3 | 0.0 | 0.00 | 0.00 | 0.00 | 71 | 1060.7 |
| 20260510064839 | 11 | 0 | 4.8 | 0.0 | 0.00 | 0.00 | 0.00 | 71 | 1060.6 |
| 20260510064716 | 11 | 0 | 6.4 | 0.0 | 0.00 | 0.00 | 0.00 | 71 | 1060.6 |
| 20260510064549 | 11 | 22 | 0.0 | 0.0 | 0.00 | 0.00 | 0.00 | 72 | 1060.6 |
| 20260510064444 | 11 | 45 | 0.0 | 0.0 | 0.00 | 0.00 | 0.00 | 72 | 1060.6 |
| 20260510064331 | 11 | 45 | 9.7 | 0.0 | 0.00 | 0.00 | 0.00 | 72 | 1060.6 |
| 20260510064219 | 11 | 67 | 9.7 | 0.0 | 0.00 | 0.00 | 0.00 | 72 | 1060.6 |
| 20260510064114 | 11 | 22 | 8.0 | 0.0 | 0.00 | 0.00 | 0.00 | 72 | 1060.6 |
| 20260510064007 | 11 | 45 | 8.0 | 0.0 | 0.00 | 0.00 | 0.00 | 73 | 1060.6 |
| 20260510063854 | 11 | 22 | 12.9 | 0.0 | 0.00 | 0.00 | 0.00 | 73 | 1060.5 |
| 20260510063731 | 11 | 22 | 9.7 | 0.0 | 0.00 | 0.00 | 0.00 | 73 | 1060.5 |
| 20260510063612 | 11 | 67 | 6.4 | 0.0 | 0.00 | 0.00 | 0.00 | 73 | 1060.5 |
| 20260510063459 | 11 | 22 | 16.1 | 0.0 | 0.00 | 0.00 | 0.00 | 72 | 1060.5 |
| 20260510063345 | 11 | 0 | 8.0 | 0.0 | 0.00 | 0.00 | 0.00 | 72 | 1060.5 |
| 20260510063232 | 11 | 0 | 6.4 | 0.0 | 0.00 | 0.00 | 0.00 | 72 | 1060.6 |
| 20260510063113 | 11 | 45 | 14.5 | 0.0 | 0.00 | 0.00 | 0.00 | 72 | 1060.6 |
| 20260510063008 | 11 | 45 | 0.0 | 0.0 | 0.00 | 0.00 | 0.00 | 73 | 1060.5 |
| 20260510062902 | 11 | 45 | 11.3 | 0.0 | 0.00 | 0.00 | 0.00 | 72 | 1060.5 |
| 20260510062759 | 11 | 22 | 6.4 | 0.0 | 0.00 | 0.00 | 0.00 | 72 | 1060.5 |
| 20260510062651 | 11 | 337 | 8.0 | 0.0 | 0.00 | 0.00 | 0.00 | 73 | 1060.6 |
| 20260510062537 | 11 | 0 | 0.0 | 0.0 | 0.00 | 0.00 | 0.00 | 73 | 1060.5 |
| 20260510062416 | 11 | 45 | 6.4 | 0.0 | 0.00 | 0.00 | 0.00 | 73 | 1060.6 |
| 20260510062256 | 11 | 22 | 9.7 | 0.0 | 0.00 | 0.00 | 0.00 | 73 | 1060.5 |
| 20260510062150 | 11 | 22 | 6.4 | 0.0 | 0.00 | 0.00 | 0.00 | 73 | 1060.6 |
| 20260510062028 | 11 | 45 | 14.5 | 0.0 | 0.00 | 0.00 | 0.00 | 73 | 1060.5 |
| 20260510061916 | 11 | 22 | 17.7 | 0.0 | 0.00 | 0.00 | 0.00 | 74 | 1060.5 |
| 20260510061803 | 11 | 0 | 9.7 | 0.0 | 0.00 | 0.00 | 0.00 | 75 | 1060.6 |
| 20260510061658 | 11 | 22 | 14.5 | 0.0 | 0.00 | 0.00 | 0.00 | 76 | 1060.5 |
| 20260510061544 | 11 | 0 | 4.8 | 0.0 | 0.00 | 0.00 | 0.00 | 76 | 1060.6 |
| 20260510061424 | 11 | 0 | 14.5 | 0.0 | 0.00 | 0.00 | 0.00 | 76 | 1060.5 |
| 20260510061311 | 11 | 0 | 8.0 | 0.0 | 0.00 | 0.00 | 0.00 | 76 | 1060.5 |
| 20260510061206 | 11 | 0 | 9.7 | 0.0 | 0.00 | 0.00 | 0.00 | 76 | 1060.5 |
| 20260510061100 | 11 | 0 | 8.0 | 0.0 | 0.00 | 0.00 | 0.00 | 76 | 1060.5 |
| 20260510060948 | 11 | 22 | 11.3 | 0.0 | 0.00 | 0.00 | 0.00 | 77 | 1060.5 |
| 20260510060841 | 11 | 22 | 4.8 | 0.0 | 0.00 | 0.00 | 0.00 | 77 | 1060.5 |
| 20260510060721 | 11 | 0 | 3.2 | 0.0 | 0.00 | 0.00 | 0.00 | 77 | 1060.6 |
| 20260510060607 | 11 | 0 | 9.7 | 0.0 | 0.00 | 0.00 | 0.00 | 77 | 1060.6 |
| 20260510060441 | 11 | 0 | 11.3 | 0.0 | 0.00 | 0.00 | 0.00 | 77 | 1060.6 |
| 20260510060332 | 11 | 22 | 6.4 | 0.0 | 0.00 | 0.00 | 0.00 | 77 | 1060.6 |
| 20260510060220 | 11 | 22 | 4.8 | 0.0 | 0.00 | 0.00 | 0.00 | 77 | 1060.6 |
| 20260510060116 | 11 | 0 | 6.4 | 0.0 | 0.00 | 0.00 | 0.00 | 77 | 1060.6 |
| 20260510060013 | 11 | 0 | 8.0 | 0.0 | 0.00 | 0.00 | 0.00 | 77 | 1060.6 |
| 20260510055906 | 11 | 22 | 6.4 | 0.0 | 0.00 | 0.00 | 0.00 | 77 | 1060.6 |
| 20260510055801 | 11 | 337 | 11.3 | 0.0 | 0.00 | 0.00 | 0.00 | 77 | 1060.6 |
| 20260510055655 | 11 | 22 | 12.9 | 0.0 | 0.00 | 0.00 | 0.00 | 77 | 1060.5 |
| 20260510055542 | 11 | 337 | 3.2 | 0.0 | 0.00 | 0.00 | 0.00 | 77 | 1060.5 |
| 20260510055431 | 11 | 22 | 9.7 | 0.0 | 0.00 | 0.00 | 0.00 | 77 | 1060.4 |
| 20260510055326 | 11 | 0 | 11.3 | 0.0 | 0.00 | 0.00 | 0.00 | 77 | 1060.4 |
| 20260510055219 | 11 | 0 | 9.7 | 0.0 | 0.00 | 0.00 | 0.00 | 78 | 1060.4 |
| 20260510055106 | 11 | 0 | 8.0 | 0.0 | 0.00 | 0.00 | 0.00 | 78 | 1060.5 |
| 20260510054953 | 11 | 22 | 8.0 | 0.0 | 0.00 | 0.00 | 0.00 | 78 | 1060.4 |
| 20260510054848 | 11 | 45 | 9.7 | 0.0 | 0.00 | 0.00 | 0.00 | 78 | 1060.4 |
| 20260510054742 | 11 | 337 | 8.0 | 0.0 | 0.00 | 0.00 | 0.00 | 78 | 1060.4 |
| 20260510054620 | 11 | 45 | 11.3 | 0.0 | 0.00 | 0.00 | 0.00 | 78 | 1060.5 |
| 20260510054500 | 11 | 22 | 12.9 | 0.0 | 0.00 | 0.00 | 0.00 | 78 | 1060.5 |
| 20260510054347 | 11 | 22 | 6.4 | 0.0 | 0.00 | 0.00 | 0.00 | 78 | 1060.5 |
| 20260510054234 | 11 | 0 | 9.7 | 0.0 | 0.00 | 0.00 | 0.00 | 79 | 1060.5 |
| 20260510054120 | 11 | 22 | 4.8 | 0.0 | 0.00 | 0.00 | 0.00 | 79 | 1060.5 |
| 20260510054008 | 11 | 22 | 0.0 | 0.0 | 0.00 | 0.00 | 0.00 | 79 | 1060.5 |
| 20260510053846 | 11 | 22 | 12.9 | 0.0 | 0.00 | 0.00 | 0.00 | 79 | 1060.5 |
| 20260510053732 | 11 | 0 | 11.3 | 0.0 | 0.00 | 0.00 | 0.00 | 79 | 1060.5 |
| 20260510053612 | 11 | 22 | 0.0 | 0.0 | 0.00 | 0.00 | 0.00 | 79 | 1060.5 |
| 20260510053450 | 11 | 45 | 6.4 | 0.0 | 0.00 | 0.00 | 0.00 | 79 | 1060.5 |
| 20260510053337 | 11 | 45 | 0.0 | 0.0 | 0.00 | 0.00 | 0.00 | 79 | 1060.4 |
| 20260510053225 | 11 | 337 | 14.5 | 0.0 | 0.00 | 0.00 | 0.00 | 79 | 1060.4 |
| 20260510053103 | 11 | 22 | 12.9 | 0.0 | 0.00 | 0.00 | 0.00 | 79 | 1060.4 |
| 20260510052950 | 11 | 22 | 0.0 | 0.0 | 0.00 | 0.00 | 0.00 | 79 | 1060.5 |
| 20260510052845 | 11 | 22 | 6.4 | 0.0 | 0.00 | 0.00 | 0.00 | 79 | 1060.5 |
| 20260510052734 | 11 | 0 | 9.7 | 0.0 | 0.00 | 0.00 | 0.00 | 79 | 1060.5 |
| 20260510052619 | 11 | 22 | 8.0 | 0.0 | 0.00 | 0.00 | 0.00 | 79 | 1060.6 |
| 20260510052508 | 11 | 0 | 9.7 | 0.0 | 0.00 | 0.00 | 0.00 | 79 | 1060.6 |
| 20260510052401 | 11 | 22 | 9.7 | 0.0 | 0.00 | 0.00 | 0.00 | 79 | 1060.5 |
| 20260510052248 | 11 | 45 | 12.9 | 0.0 | 0.00 | 0.00 | 0.00 | 79 | 1060.6 |
| 20260510052141 | 11 | 45 | 14.5 | 0.0 | 0.00 | 0.00 | 0.00 | 79 | 1060.6 |
| 20260510052028 | 11 | 337 | 8.0 | 0.0 | 0.00 | 0.00 | 0.00 | 79 | 1060.5 |
| 20260510051918 | 11 | 0 | 9.7 | 0.0 | 0.00 | 0.00 | 0.00 | 79 | 1060.5 |
| 20260510051811 | 11 | 22 | 14.5 | 0.0 | 0.00 | 0.00 | 0.00 | 80 | 1060.5 |
| 20260510051649 | 11 | 337 | 11.3 | 0.0 | 0.00 | 0.00 | 0.00 | 80 | 1060.5 |
| 20260510051536 | 11 | 0 | 6.4 | 0.0 | 0.00 | 0.00 | 0.00 | 80 | 1060.5 |
| 20260510051424 | 11 | 45 | 11.3 | 0.0 | 0.00 | 0.00 | 0.00 | 80 | 1060.6 |
| 20260510051312 | 11 | 337 | 12.9 | 0.0 | 0.00 | 0.00 | 0.00 | 80 | 1060.5 |
| 20260510051205 | 11 | 22 | 6.4 | 0.0 | 0.00 | 0.00 | 0.00 | 80 | 1060.5 |
| 20260510051053 | 11 | 22 | 12.9 | 0.0 | 0.00 | 0.00 | 0.00 | 80 | 1060.5 |
| 20260510050947 | 11 | 22 | 4.8 | 0.0 | 0.00 | 0.00 | 0.00 | 80 | 1060.5 |
| 20260510050835 | 11 | 22 | 8.0 | 0.0 | 0.00 | 0.00 | 0.00 | 80 | 1060.5 |
| 20260510050731 | 11 | 0 | 6.4 | 0.0 | 0.00 | 0.00 | 0.00 | 80 | 1060.5 |
| 20260510050624 | 11 | 45 | 6.4 | 0.0 | 0.00 | 0.00 | 0.00 | 80 | 1060.5 |
| 20260510050512 | 11 | 22 | 6.4 | 0.0 | 0.00 | 0.00 | 0.00 | 80 | 1060.5 |
| 20260510050358 | 11 | 22 | 9.7 | 0.0 | 0.00 | 0.00 | 0.00 | 81 | 1060.5 |
| 20260510050244 | 11 | 22 | 14.5 | 0.0 | 0.00 | 0.00 | 0.00 | 81 | 1060.5 |
| 20260510050123 | 11 | 45 | 12.9 | 0.0 | 0.00 | 0.00 | 0.00 | 81 | 1060.5 |
| 20260510050010 | 11 | 0 | 8.0 | 0.0 | 0.00 | 0.00 | 0.00 | 81 | 1060.4 |
| 20260510045856 | 11 | 22 | 11.3 | 0.0 | 0.00 | 0.00 | 0.00 | 81 | 1060.5 |
| 20260510045727 | 11 | 22 | 9.7 | 0.0 | 0.00 | 0.00 | 0.00 | 82 | 1060.5 |
| 20260510045614 | 11 | 22 | 8.0 | 0.0 | 0.00 | 0.00 | 0.00 | 82 | 1060.5 |
| 20260510045507 | 11 | 0 | 11.3 | 0.0 | 0.00 | 0.00 | 0.00 | 82 | 1060.5 |
| 20260510045353 | 11 | 22 | 8.0 | 0.0 | 0.00 | 0.00 | 0.00 | 82 | 1060.6 |
| 20260510045232 | 11 | 22 | 6.4 | 0.0 | 0.00 | 0.00 | 0.00 | 82 | 1060.6 |
| 20260510045125 | 11 | 0 | 8.0 | 0.0 | 0.00 | 0.00 | 0.00 | 83 | 1060.6 |
| 20260510045011 | 11 | 22 | 9.7 | 0.0 | 0.00 | 0.00 | 0.00 | 83 | 1060.6 |
| 20260510044904 | 11 | 67 | 14.5 | 0.0 | 0.00 | 0.00 | 0.00 | 83 | 1060.5 |
| 20260510044742 | 11 | 0 | 12.9 | 0.0 | 0.00 | 0.00 | 0.00 | 83 | 1060.6 |
| 20260510044629 | 11 | 22 | 0.0 | 0.0 | 0.00 | 0.00 | 0.00 | 83 | 1060.6 |
| 20260510044522 | 11 | 22 | 9.7 | 0.0 | 0.00 | 0.00 | 0.00 | 83 | 1060.6 |
| 20260510044408 | 11 | 0 | 6.4 | 0.0 | 0.00 | 0.00 | 0.00 | 83 | 1060.5 |
| 20260510044255 | 11 | 0 | 3.2 | 0.0 | 0.00 | 0.00 | 0.00 | 83 | 1060.5 |
| 20260510044131 | 11 | 337 | 8.0 | 0.0 | 0.00 | 0.00 | 0.00 | 83 | 1060.5 |
| 20260510044016 | 11 | 0 | 6.4 | 0.0 | 0.00 | 0.00 | 0.00 | 83 | 1060.5 |
| 20260510043846 | 11 | 0 | 0.0 | 0.0 | 0.00 | 0.00 | 0.00 | 83 | 1060.5 |
| 20260510043732 | 11 | 22 | 12.9 | 0.0 | 0.00 | 0.00 | 0.00 | 83 | 1060.4 |
| 20260510043625 | 11 | 0 | 12.9 | 0.0 | 0.00 | 0.00 | 0.00 | 83 | 1060.5 |
| 20260510043511 | 11 | 22 | 4.8 | 0.0 | 0.00 | 0.00 | 0.00 | 83 | 1060.5 |
| 20260510043349 | 11 | 22 | 3.2 | 0.0 | 0.00 | 0.00 | 0.00 | 82 | 1060.5 |
| 20260510043235 | 11 | 45 | 9.7 | 0.0 | 0.00 | 0.00 | 0.00 | 82 | 1060.5 |
| 20260510043128 | 11 | 0 | 0.0 | 0.0 | 0.00 | 0.00 | 0.00 | 82 | 1060.5 |
| 20260510043022 | 11 | 0 | 6.4 | 0.0 | 0.00 | 0.00 | 0.00 | 82 | 1060.5 |
| 20260510042859 | 11 | 67 | 19.3 | 0.0 | 0.00 | 0.00 | 0.00 | 82 | 1060.4 |
| 20260510042739 | 11 | 0 | 8.0 | 0.0 | 0.00 | 0.00 | 0.00 | 82 | 1060.4 |
| 20260510042632 | 11 | 67 | 0.0 | 0.0 | 0.00 | 0.00 | 0.00 | 82 | 1060.5 |
| 20260510042526 | 11 | 0 | 8.0 | 0.0 | 0.00 | 0.00 | 0.00 | 82 | 1060.4 |
| 20260510042419 | 11 | 22 | 6.4 | 0.0 | 0.00 | 0.00 | 0.00 | 82 | 1060.5 |
| 20260510042259 | 11 | 45 | 11.3 | 0.0 | 0.00 | 0.00 | 0.00 | 83 | 1060.5 |
| 20260510042143 | 11 | 0 | 8.0 | 0.0 | 0.00 | 0.00 | 0.00 | 83 | 1060.5 |
| 20260510042029 | 11 | 0 | 9.7 | 0.0 | 0.00 | 0.00 | 0.00 | 83 | 1060.5 |
| 20260510041922 | 11 | 22 | 9.7 | 0.0 | 0.00 | 0.00 | 0.00 | 83 | 1060.5 |
| 20260510041800 | 11 | 22 | 9.7 | 0.0 | 0.00 | 0.00 | 0.00 | 83 | 1060.5 |
| 20260510041638 | 11 | 22 | 9.7 | 0.0 | 0.00 | 0.00 | 0.00 | 83 | 1060.6 |
| 20260510041532 | 11 | 45 | 6.4 | 0.0 | 0.00 | 0.00 | 0.00 | 83 | 1060.5 |
| 20260510041426 | 11 | 0 | 12.9 | 0.0 | 0.00 | 0.00 | 0.00 | 83 | 1060.6 |
| 20260510041320 | 11 | 0 | 11.3 | 0.0 | 0.00 | 0.00 | 0.00 | 83 | 1060.5 |
| 20260510041214 | 11 | 45 | 8.0 | 0.0 | 0.00 | 0.00 | 0.00 | 83 | 1060.6 |
| 20260510041111 | 11 | 22 | 9.7 | 0.0 | 0.00 | 0.00 | 0.00 | 83 | 1060.5 |
| 20260510041006 | 11 | 22 | 9.7 | 0.0 | 0.00 | 0.00 | 0.00 | 83 | 1060.5 |
| 20260510040855 | 11 | 22 | 3.2 | 0.0 | 0.00 | 0.00 | 0.00 | 83 | 1060.5 |
| 20260510040734 | 11 | 45 | 9.7 | 0.0 | 0.00 | 0.00 | 0.00 | 83 | 1060.5 |
| 20260510040629 | 11 | 45 | 9.7 | 0.0 | 0.00 | 0.00 | 0.00 | 83 | 1060.5 |
| 20260510040521 | 11 | 22 | 9.7 | 0.0 | 0.00 | 0.00 | 0.00 | 83 | 1060.5 |
| 20260510040410 | 11 | 22 | 14.5 | 0.0 | 0.00 | 0.00 | 0.00 | 83 | 1060.4 |
| 20260510040301 | 11 | 45 | 3.2 | 0.0 | 0.00 | 0.00 | 0.00 | 83 | 1060.4 |
| 20260510040147 | 11 | 22 | 6.4 | 0.0 | 0.00 | 0.00 | 0.00 | 83 | 1060.4 |
| 20260510040041 | 11 | 22 | 9.7 | 0.0 | 0.00 | 0.00 | 0.00 | 83 | 1060.4 |
| 20260510035935 | 11 | 22 | 9.7 | 0.0 | 0.00 | 0.00 | 0.00 | 83 | 1060.5 |
| 20260510035828 | 11 | 67 | 9.7 | 0.0 | 0.00 | 0.00 | 0.00 | 83 | 1060.4 |
| 20260510035708 | 11 | 45 | 9.7 | 0.0 | 0.00 | 0.00 | 0.00 | 83 | 1060.4 |
| 20260510035600 | 11 | 22 | 1.6 | 0.0 | 0.00 | 0.00 | 0.00 | 83 | 1060.4 |
| 20260510035438 | 11 | 45 | 8.0 | 0.0 | 0.00 | 0.00 | 0.00 | 84 | 1060.4 |
| 20260510035332 | 11 | 22 | 0.0 | 0.0 | 0.00 | 0.00 | 0.00 | 84 | 1060.4 |
| 20260510035225 | 11 | 45 | 8.0 | 0.0 | 0.00 | 0.00 | 0.00 | 84 | 1060.4 |
| 20260510035120 | 11 | 22 | 8.0 | 0.0 | 0.00 | 0.00 | 0.00 | 83 | 1060.3 |
| 20260510035014 | 11 | 337 | 9.7 | 0.0 | 0.00 | 0.00 | 0.00 | 84 | 1060.5 |
| 20260510034907 | 11 | 337 | 8.0 | 0.0 | 0.00 | 0.00 | 0.00 | 83 | 1060.5 |
| 20260510034753 | 11 | 0 | 4.8 | 0.0 | 0.00 | 0.00 | 0.00 | 84 | 1060.4 |
| 20260510034633 | 11 | 0 | 9.7 | 0.0 | 0.00 | 0.00 | 0.00 | 84 | 1060.5 |
| 20260510034526 | 11 | 45 | 11.3 | 0.0 | 0.00 | 0.00 | 0.00 | 83 | 1060.5 |
| 20260510034419 | 11 | 22 | 4.8 | 0.0 | 0.00 | 0.00 | 0.00 | 83 | 1060.6 |
| 20260510034305 | 11 | 22 | 9.7 | 0.0 | 0.00 | 0.00 | 0.00 | 84 | 1060.6 |
| 20260510034158 | 11 | 22 | 9.7 | 0.0 | 0.00 | 0.00 | 0.00 | 83 | 1060.5 |
| 20260510034036 | 11 | 22 | 16.1 | 0.0 | 0.00 | 0.00 | 0.00 | 83 | 1060.6 |
| 20260510033914 | 11 | 0 | 24.1 | 0.0 | 0.00 | 0.00 | 0.00 | 83 | 1060.5 |
| 20260510033808 | 11 | 45 | 9.7 | 0.0 | 0.00 | 0.00 | 0.00 | 83 | 1060.6 |
| 20260510033653 | 11 | 337 | 3.2 | 0.0 | 0.00 | 0.00 | 0.00 | 83 | 1060.6 |
| 20260510033532 | 11 | 0 | 19.3 | 0.0 | 0.00 | 0.00 | 0.00 | 83 | 1060.6 |
| 20260510033425 | 11 | 45 | 16.1 | 0.0 | 0.00 | 0.00 | 0.00 | 83 | 1060.6 |
| 20260510033310 | 11 | 45 | 8.0 | 0.0 | 0.00 | 0.00 | 0.00 | 83 | 1060.7 |
| 20260510033158 | 11 | 22 | 9.7 | 0.0 | 0.00 | 0.00 | 0.00 | 83 | 1060.7 |
| 20260510033043 | 11 | 45 | 3.2 | 0.0 | 0.00 | 0.00 | 0.00 | 83 | 1060.7 |
| 20260510032936 | 11 | 22 | 3.2 | 0.0 | 0.00 | 0.00 | 0.00 | 83 | 1060.7 |
| 20260510032822 | 11 | 0 | 17.7 | 0.0 | 0.00 | 0.00 | 0.00 | 83 | 1060.7 |
| 20260510032708 | 11 | 22 | 0.0 | 0.0 | 0.00 | 0.00 | 0.00 | 83 | 1060.7 |
| 20260510032602 | 11 | 45 | 6.4 | 0.0 | 0.00 | 0.00 | 0.00 | 83 | 1060.7 |
| 20260510032456 | 11 | 0 | 6.4 | 0.0 | 0.00 | 0.00 | 0.00 | 83 | 1060.7 |
| 20260510032341 | 11 | 0 | 12.9 | 0.0 | 0.00 | 0.00 | 0.00 | 83 | 1060.7 |
| 20260510032219 | 11 | 22 | 4.8 | 0.0 | 0.00 | 0.00 | 0.00 | 83 | 1060.7 |
| 20260510032105 | 11 | 67 | 9.7 | 0.0 | 0.00 | 0.00 | 0.00 | 83 | 1060.7 |
| 20260510031959 | 11 | 22 | 9.7 | 0.0 | 0.00 | 0.00 | 0.00 | 83 | 1060.7 |
| 20260510031853 | 11 | 0 | 9.7 | 0.0 | 0.00 | 0.00 | 0.00 | 83 | 1060.8 |
| 20260510031747 | 11 | 45 | 9.7 | 0.0 | 0.00 | 0.00 | 0.00 | 83 | 1060.8 |
| 20260510031640 | 11 | 22 | 12.9 | 0.0 | 0.00 | 0.00 | 0.00 | 83 | 1060.8 |
| 20260510031529 | 11 | 0 | 11.3 | 0.0 | 0.00 | 0.00 | 0.00 | 83 | 1060.7 |
| 20260510031422 | 11 | 337 | 8.0 | 0.0 | 0.00 | 0.00 | 0.00 | 83 | 1060.7 |
| 20260510031308 | 11 | 0 | 9.7 | 0.0 | 0.00 | 0.00 | 0.00 | 83 | 1060.7 |
| 20260510031201 | 11 | 22 | 11.3 | 0.0 | 0.00 | 0.00 | 0.00 | 83 | 1060.7 |
| 20260510031054 | 11 | 22 | 14.5 | 0.0 | 0.00 | 0.00 | 0.00 | 83 | 1060.8 |
| 20260510030940 | 11 | 22 | 8.0 | 0.0 | 0.00 | 0.00 | 0.00 | 84 | 1060.8 |
| 20260510030826 | 11 | 0 | 6.4 | 0.0 | 0.00 | 0.00 | 0.00 | 84 | 1060.8 |
| 20260510030720 | 11 | 0 | 9.7 | 0.0 | 0.00 | 0.00 | 0.00 | 84 | 1060.8 |
| 20260510030605 | 11 | 22 | 6.4 | 0.0 | 0.00 | 0.00 | 0.00 | 84 | 1060.7 |
| 20260510030443 | 11 | 22 | 9.7 | 0.0 | 0.00 | 0.00 | 0.00 | 84 | 1060.8 |
| 20260510030329 | 11 | 0 | 9.7 | 0.0 | 0.00 | 0.00 | 0.00 | 84 | 1060.8 |
| 20260510030223 | 11 | 22 | 4.8 | 0.0 | 0.00 | 0.00 | 0.00 | 84 | 1060.8 |
| 20260510030117 | 11 | 67 | 8.0 | 0.0 | 0.00 | 0.00 | 0.00 | 84 | 1060.9 |
| 20260510030011 | 11 | 22 | 6.4 | 0.0 | 0.00 | 0.00 | 0.00 | 84 | 1060.8 |
| 20260510025905 | 11 | 45 | 14.5 | 0.0 | 0.00 | 0.00 | 0.00 | 84 | 1060.9 |
| 20260510025759 | 11 | 337 | 9.7 | 0.0 | 0.00 | 0.00 | 0.00 | 84 | 1060.9 |
| 20260510025646 | 11 | 22 | 9.7 | 0.0 | 0.00 | 0.00 | 0.00 | 84 | 1060.9 |
| 20260510025530 | 11 | 22 | 6.4 | 0.0 | 0.00 | 0.00 | 0.00 | 84 | 1060.9 |
| 20260510025418 | 11 | 22 | 0.0 | 0.0 | 0.00 | 0.00 | 0.00 | 84 | 1060.9 |
| 20260510025311 | 11 | 45 | 4.8 | 0.0 | 0.00 | 0.00 | 0.00 | 84 | 1060.9 |
| 20260510025204 | 11 | 22 | 8.0 | 0.0 | 0.00 | 0.00 | 0.00 | 85 | 1060.9 |
| 20260510025051 | 11 | 22 | 9.7 | 0.0 | 0.00 | 0.00 | 0.00 | 85 | 1061.0 |
| 20260510024946 | 11 | 0 | 3.2 | 0.0 | 0.00 | 0.00 | 0.00 | 85 | 1061.0 |
| 20260510024824 | 11 | 22 | 0.0 | 0.0 | 0.00 | 0.00 | 0.00 | 85 | 1061.0 |
| 20260510024703 | 11 | 45 | 4.8 | 0.0 | 0.00 | 0.00 | 0.00 | 85 | 1060.9 |
| 20260510024534 | 11 | 22 | 0.0 | 0.0 | 0.00 | 0.00 | 0.00 | 85 | 1061.0 |
| 20260510024420 | 11 | 22 | 12.9 | 0.0 | 0.00 | 0.00 | 0.00 | 85 | 1061.0 |
| 20260510024300 | 11 | 22 | 3.2 | 0.0 | 0.00 | 0.00 | 0.00 | 85 | 1061.0 |
| 20260510024147 | 11 | 22 | 0.0 | 0.0 | 0.00 | 0.00 | 0.00 | 85 | 1061.0 |
| 20260510024033 | 11 | 22 | 0.0 | 0.0 | 0.00 | 0.00 | 0.00 | 85 | 1061.0 |
| 20260510023904 | 11 | 22 | 6.4 | 0.0 | 0.00 | 0.00 | 0.00 | 85 | 1061.0 |
| 20260510023751 | 11 | 45 | 4.8 | 0.0 | 0.00 | 0.00 | 0.00 | 85 | 1061.0 |
| 20260510023637 | 11 | 45 | 9.7 | 0.0 | 0.00 | 0.00 | 0.00 | 85 | 1061.0 |
| 20260510023516 | 11 | 22 | 6.4 | 0.0 | 0.00 | 0.00 | 0.00 | 85 | 1061.1 |
| 20260510023355 | 11 | 0 | 11.3 | 0.0 | 0.00 | 0.00 | 0.00 | 85 | 1061.0 |
| 20260510023234 | 11 | 45 | 4.8 | 0.0 | 0.00 | 0.00 | 0.00 | 85 | 1061.0 |
| 20260510023113 | 11 | 22 | 3.2 | 0.0 | 0.00 | 0.00 | 0.00 | 85 | 1061.0 |
| 20260510023000 | 11 | 0 | 4.8 | 0.0 | 0.00 | 0.00 | 0.00 | 85 | 1061.0 |
| 20260510022847 | 11 | 22 | 8.0 | 0.0 | 0.00 | 0.00 | 0.00 | 85 | 1061.0 |
| 20260510022733 | 11 | 22 | 6.4 | 0.0 | 0.00 | 0.00 | 0.00 | 85 | 1061.0 |
| 20260510022620 | 11 | 0 | 0.0 | 0.0 | 0.00 | 0.00 | 0.00 | 85 | 1060.9 |
| 20260510022509 | 11 | 22 | 9.7 | 0.0 | 0.00 | 0.00 | 0.00 | 85 | 1060.9 |
| 20260510022404 | 11 | 45 | 0.0 | 0.0 | 0.00 | 0.00 | 0.00 | 85 | 1060.9 |
| 20260510022249 | 11 | 22 | 6.4 | 0.0 | 0.00 | 0.00 | 0.00 | 85 | 1060.9 |
| 20260510022136 | 11 | 22 | 3.2 | 0.0 | 0.00 | 0.00 | 0.00 | 85 | 1061.0 |
| 20260510022031 | 11 | 22 | 8.0 | 0.0 | 0.00 | 0.00 | 0.00 | 85 | 1061.0 |
| 20260510021910 | 11 | 22 | 4.8 | 0.0 | 0.00 | 0.00 | 0.00 | 85 | 1061.1 |
| 20260510021757 | 11 | 0 | 6.4 | 0.0 | 0.00 | 0.00 | 0.00 | 85 | 1061.1 |
| 20260510021652 | 11 | 0 | 4.8 | 0.0 | 0.00 | 0.00 | 0.00 | 85 | 1061.1 |
| 20260510021530 | 11 | 337 | 8.0 | 0.0 | 0.00 | 0.00 | 0.00 | 85 | 1061.0 |
| 20260510021417 | 11 | 22 | 4.8 | 0.0 | 0.00 | 0.00 | 0.00 | 85 | 1061.1 |
| 20260510021304 | 11 | 45 | 8.0 | 0.0 | 0.00 | 0.00 | 0.00 | 85 | 1061.1 |
| 20260510021150 | 11 | 67 | 6.4 | 0.0 | 0.00 | 0.00 | 0.00 | 85 | 1061.1 |
| 20260510021018 | 11 | 22 | 11.3 | 0.0 | 0.00 | 0.00 | 0.00 | 85 | 1061.0 |
| 20260510020909 | 11 | 0 | 0.0 | 0.0 | 0.00 | 0.00 | 0.00 | 85 | 1061.0 |
| 20260510020756 | 11 | 0 | 1.6 | 0.0 | 0.00 | 0.00 | 0.00 | 85 | 1061.0 |
| 20260510020634 | 11 | 0 | 6.4 | 0.0 | 0.00 | 0.00 | 0.00 | 85 | 1061.0 |
| 20260510020521 | 11 | 0 | 4.8 | 0.0 | 0.00 | 0.00 | 0.00 | 84 | 1061.0 |
| 20260510020415 | 11 | 0 | 4.8 | 0.0 | 0.00 | 0.00 | 0.00 | 84 | 1061.0 |
| 20260510020310 | 11 | 45 | 8.0 | 0.0 | 0.00 | 0.00 | 0.00 | 84 | 1061.0 |
| 20260510020203 | 11 | 45 | 9.7 | 0.0 | 0.00 | 0.00 | 0.00 | 84 | 1061.0 |
| 20260510020057 | 11 | 45 | 0.0 | 0.0 | 0.00 | 0.00 | 0.00 | 84 | 1061.0 |
| 20260510015951 | 11 | 45 | 3.2 | 0.0 | 0.00 | 0.00 | 0.00 | 84 | 1061.0 |
| 20260510015845 | 11 | 22 | 8.0 | 0.0 | 0.00 | 0.00 | 0.00 | 84 | 1061.0 |
| 20260510015739 | 11 | 45 | 9.7 | 0.0 | 0.00 | 0.00 | 0.00 | 84 | 1061.0 |
| 20260510015632 | 11 | 45 | 4.8 | 0.0 | 0.00 | 0.00 | 0.00 | 84 | 1061.0 |
| 20260510015511 | 11 | 22 | 11.3 | 0.0 | 0.00 | 0.00 | 0.00 | 84 | 1061.0 |
| 20260510015358 | 11 | 22 | 3.2 | 0.0 | 0.00 | 0.00 | 0.00 | 84 | 1061.0 |
| 20260510015244 | 11 | 22 | 9.7 | 0.0 | 0.00 | 0.00 | 0.00 | 84 | 1061.0 |
| 20260510015130 | 11 | 45 | 11.3 | 0.0 | 0.00 | 0.00 | 0.00 | 84 | 1061.1 |
| 20260510015001 | 11 | 0 | 4.8 | 0.0 | 0.00 | 0.00 | 0.00 | 84 | 1061.0 |
| 20260510014840 | 11 | 45 | 8.0 | 0.0 | 0.00 | 0.00 | 0.00 | 84 | 1061.1 |
| 20260510014718 | 11 | 45 | 8.0 | 0.0 | 0.00 | 0.00 | 0.00 | 83 | 1061.0 |
| 20260510014613 | 11 | 22 | 12.9 | 0.0 | 0.00 | 0.00 | 0.00 | 83 | 1061.1 |
| 20260510014452 | 11 | 22 | 9.7 | 0.0 | 0.00 | 0.00 | 0.00 | 83 | 1061.0 |
| 20260510014339 | 11 | 45 | 9.7 | 0.0 | 0.00 | 0.00 | 0.00 | 83 | 1061.0 |
| 20260510014234 | 11 | 22 | 1.6 | 0.0 | 0.00 | 0.00 | 0.00 | 83 | 1061.1 |
| 20260510014121 | 11 | 45 | 3.2 | 0.0 | 0.00 | 0.00 | 0.00 | 84 | 1061.1 |
| 20260510014007 | 11 | 45 | 0.0 | 0.0 | 0.00 | 0.00 | 0.00 | 84 | 1061.1 |
| 20260510013846 | 11 | 45 | 6.4 | 0.0 | 0.00 | 0.00 | 0.00 | 84 | 1061.1 |
| 20260510013740 | 11 | 45 | 0.0 | 0.0 | 0.00 | 0.00 | 0.00 | 84 | 1061.1 |
| 20260510013626 | 11 | 45 | 3.2 | 0.0 | 0.00 | 0.00 | 0.00 | 84 | 1061.1 |
| 20260510013505 | 11 | 22 | 9.7 | 0.0 | 0.00 | 0.00 | 0.00 | 84 | 1061.2 |
| 20260510013352 | 11 | 22 | 6.4 | 0.0 | 0.00 | 0.00 | 0.00 | 84 | 1061.2 |
| 20260510013240 | 11 | 45 | 6.4 | 0.0 | 0.00 | 0.00 | 0.00 | 84 | 1061.1 |
| 20260510013126 | 11 | 45 | 4.8 | 0.0 | 0.00 | 0.00 | 0.00 | 84 | 1061.2 |
| 20260510013013 | 11 | 0 | 8.0 | 0.0 | 0.00 | 0.00 | 0.00 | 84 | 1061.2 |
| 20260510012900 | 11 | 22 | 8.0 | 0.0 | 0.00 | 0.00 | 0.00 | 84 | 1061.1 |
| 20260510012746 | 11 | 0 | 4.8 | 0.0 | 0.00 | 0.00 | 0.00 | 84 | 1061.1 |
| 20260510012625 | 11 | 45 | 1.6 | 0.0 | 0.00 | 0.00 | 0.00 | 85 | 1061.1 |
| 20260510012512 | 11 | 0 | 8.0 | 0.0 | 0.00 | 0.00 | 0.00 | 85 | 1061.2 |
| 20260510012359 | 11 | 45 | 4.8 | 0.0 | 0.00 | 0.00 | 0.00 | 85 | 1061.1 |
| 20260510012253 | 11 | 45 | 3.2 | 0.0 | 0.00 | 0.00 | 0.00 | 85 | 1061.1 |
| 20260510012141 | 11 | 45 | 3.2 | 0.0 | 0.00 | 0.00 | 0.00 | 85 | 1061.1 |
| 20260510012019 | 11 | 45 | 9.7 | 0.0 | 0.00 | 0.00 | 0.00 | 85 | 1061.1 |
| 20260510011906 | 11 | 45 | 3.2 | 0.0 | 0.00 | 0.00 | 0.00 | 85 | 1061.1 |
| 20260510011801 | 11 | 45 | 8.0 | 0.0 | 0.00 | 0.00 | 0.00 | 85 | 1061.1 |
| 20260510011648 | 11 | 45 | 1.6 | 0.0 | 0.00 | 0.00 | 0.00 | 85 | 1061.2 |
| 20260510011527 | 11 | 22 | 6.4 | 0.0 | 0.00 | 0.00 | 0.00 | 85 | 1061.1 |
| 20260510011414 | 11 | 0 | 3.2 | 0.0 | 0.00 | 0.00 | 0.00 | 85 | 1061.1 |
| 20260510011256 | 11 | 67 | 8.0 | 0.0 | 0.00 | 0.00 | 0.00 | 85 | 1061.1 |
| 20260510011142 | 11 | 45 | 12.9 | 0.0 | 0.00 | 0.00 | 0.00 | 85 | 1061.1 |
| 20260510011022 | 11 | 67 | 1.6 | 0.0 | 0.00 | 0.00 | 0.00 | 85 | 1061.1 |
| 20260510010908 | 11 | 45 | 14.5 | 0.0 | 0.00 | 0.00 | 0.00 | 85 | 1061.1 |
| 20260510010754 | 11 | 45 | 3.2 | 0.0 | 0.00 | 0.00 | 0.00 | 85 | 1061.1 |
| 20260510010525 | 11 | 45 | 9.7 | 0.0 | 0.00 | 0.00 | 0.00 | 86 | 1061.1 |
| 20260510005936 | 11 | 67 | 6.4 | 0.0 | 0.00 | 0.00 | 0.00 | 86 | 1061.1 |
| 20260510005832 | 11 | 45 | 11.3 | 0.0 | 0.00 | 0.00 | 0.00 | 85 | 1061.1 |
| 20260510005720 | 11 | 45 | 6.4 | 0.0 | 0.00 | 0.00 | 0.00 | 85 | 1061.0 |
| 20260510005613 | 11 | 45 | 8.0 | 0.0 | 0.00 | 0.00 | 0.00 | 85 | 1061.1 |
| 20260510005509 | 11 | 45 | 8.0 | 0.0 | 0.00 | 0.00 | 0.00 | 85 | 1061.2 |
| 20260510005403 | 11 | 45 | 11.3 | 0.0 | 0.00 | 0.00 | 0.00 | 85 | 1061.2 |
| 20260510005251 | 11 | 67 | 8.0 | 0.0 | 0.00 | 0.00 | 0.00 | 85 | 1061.1 |
| 20260510005145 | 11 | 45 | 8.0 | 0.0 | 0.00 | 0.00 | 0.00 | 85 | 1061.2 |
| 20260510005040 | 11 | 45 | 4.8 | 0.0 | 0.00 | 0.00 | 0.00 | 85 | 1061.2 |
| 20260510004927 | 11 | 22 | 4.8 | 0.0 | 0.00 | 0.00 | 0.00 | 85 | 1061.2 |
| 20260510004813 | 11 | 45 | 8.0 | 0.0 | 0.00 | 0.00 | 0.00 | 85 | 1061.2 |
| 20260510004655 | 11 | 45 | 4.8 | 0.0 | 0.00 | 0.00 | 0.00 | 85 | 1061.2 |
| 20260510004547 | 11 | 67 | 6.4 | 0.0 | 0.00 | 0.00 | 0.00 | 85 | 1061.2 |
| 20260510004434 | 11 | 45 | 8.0 | 0.0 | 0.00 | 0.00 | 0.00 | 85 | 1061.3 |
| 20260510004321 | 11 | 45 | 9.7 | 0.0 | 0.00 | 0.00 | 0.00 | 85 | 1061.3 |
| 20260510004216 | 11 | 45 | 8.0 | 0.0 | 0.00 | 0.00 | 0.00 | 85 | 1061.3 |
| 20260510004103 | 11 | 45 | 11.3 | 0.0 | 0.00 | 0.00 | 0.00 | 85 | 1061.3 |
| 20260510003950 | 11 | 90 | 0.0 | 0.0 | 0.00 | 0.00 | 0.00 | 85 | 1061.3 |
| 20260510003845 | 11 | 45 | 6.4 | 0.0 | 0.00 | 0.00 | 0.00 | 85 | 1061.4 |
| 20260510003732 | 11 | 112 | 0.0 | 0.0 | 0.00 | 0.00 | 0.00 | 85 | 1061.4 |
| 20260510003610 | 11 | 45 | 9.7 | 0.0 | 0.00 | 0.00 | 0.00 | 85 | 1061.4 |
| 20260510003451 | 11 | 22 | 1.6 | 0.0 | 0.00 | 0.00 | 0.00 | 85 | 1061.5 |
| 20260510003345 | 11 | 45 | 9.7 | 0.0 | 0.00 | 0.00 | 0.00 | 85 | 1061.5 |
| 20260510003239 | 11 | 22 | 11.3 | 0.0 | 0.00 | 0.00 | 0.00 | 85 | 1061.5 |
| 20260510003118 | 11 | 67 | 6.4 | 0.0 | 0.00 | 0.00 | 0.00 | 85 | 1061.6 |
| 20260510002958 | 11 | 45 | 9.7 | 0.0 | 0.00 | 0.00 | 0.00 | 84 | 1061.5 |
| 20260510002851 | 11 | 45 | 0.0 | 0.0 | 0.00 | 0.00 | 0.00 | 84 | 1061.5 |
| 20260510002746 | 11 | 22 | 9.7 | 0.0 | 0.00 | 0.00 | 0.00 | 84 | 1061.5 |
| 20260510002631 | 11 | 22 | 11.3 | 0.0 | 0.00 | 0.00 | 0.00 | 84 | 1061.5 |
| 20260510002500 | 11 | 45 | 4.8 | 0.0 | 0.00 | 0.00 | 0.00 | 84 | 1061.6 |
| 20260510002323 | 11 | 22 | 4.8 | 0.0 | 0.00 | 0.00 | 0.00 | 84 | 1061.5 |
| 20260510002206 | 11 | 22 | 6.4 | 0.0 | 0.00 | 0.00 | 0.00 | 84 | 1061.5 |
| 20260510002100 | 11 | 45 | 0.0 | 0.0 | 0.00 | 0.00 | 0.00 | 84 | 1061.6 |
| 20260510001954 | 11 | 22 | 0.0 | 0.0 | 0.00 | 0.00 | 0.00 | 84 | 1061.6 |
| 20260510001848 | 11 | 45 | 1.6 | 0.0 | 0.00 | 0.00 | 0.00 | 84 | 1061.6 |
| 20260510001726 | 11 | 45 | 11.3 | 0.0 | 0.00 | 0.00 | 0.00 | 84 | 1061.6 |
| 20260510001619 | 11 | 22 | 8.0 | 0.0 | 0.00 | 0.00 | 0.00 | 84 | 1061.5 |
| 20260510001505 | 11 | 67 | 6.4 | 0.0 | 0.00 | 0.00 | 0.00 | 84 | 1061.5 |
| 20260510001352 | 11 | 45 | 8.0 | 0.0 | 0.00 | 0.00 | 0.00 | 83 | 1061.5 |
| 20260510001245 | 11 | 45 | 9.7 | 0.0 | 0.00 | 0.00 | 0.00 | 83 | 1061.5 |
| 20260510001135 | 11 | 22 | 8.0 | 0.0 | 0.00 | 0.00 | 0.00 | 83 | 1061.5 |
| 20260510001026 | 11 | 45 | 6.4 | 0.0 | 0.00 | 0.00 | 0.00 | 83 | 1061.6 |
| 20260510000915 | 11 | 67 | 6.4 | 0.0 | 0.00 | 0.00 | 0.00 | 83 | 1061.7 |
| 20260510000801 | 11 | 45 | 8.0 | 0.0 | 0.00 | 0.00 | 0.00 | 83 | 1061.6 |
| 20260510000647 | 11 | 112 | 11.3 | 0.0 | 0.00 | 0.00 | 0.00 | 83 | 1061.7 |
| 20260510000540 | 11 | 67 | 6.4 | 0.0 | 0.00 | 0.00 | 0.00 | 83 | 1061.7 |
| 20260510000427 | 11 | 67 | 6.4 | 0.0 | 0.00 | 0.00 | 0.00 | 83 | 1061.8 |
| 20260510000307 | 11 | 112 | 0.0 | 0.0 | 0.00 | 0.00 | 0.00 | 83 | 1061.7 |
| 20260510000200 | 11 | 90 | 11.3 | 0.0 | 0.00 | 0.00 | 0.00 | 83 | 1061.5 |
| 20260510000047 | 11 | 90 | 6.4 | 0.0 | 0.00 | 0.00 | 0.00 | 83 | 1061.7 |
| 20260509235942 | 11 | 67 | 3.2 | 0.0 | 0.00 | 0.00 | 0.00 | 83 | 1061.7 |
| 20260509235820 | 11 | 112 | 6.4 | 0.0 | 0.00 | 0.00 | 0.00 | 83 | 1061.7 |
| 20260509235707 | 11 | 67 | 4.8 | 0.0 | 0.00 | 0.00 | 0.00 | 83 | 1061.7 |
| 20260509235554 | 11 | 112 | 8.0 | 0.0 | 0.00 | 0.00 | 0.00 | 83 | 1061.8 |
| 20260509235441 | 11 | 90 | 6.4 | 0.0 | 0.00 | 0.00 | 0.00 | 83 | 1061.9 |
| 20260509235331 | 11 | 45 | 9.7 | 0.0 | 0.00 | 0.00 | 0.00 | 83 | 1061.7 |
| 20260509235225 | 11 | 90 | 0.0 | 0.0 | 0.00 | 0.00 | 0.00 | 83 | 1061.8 |
| 20260509235112 | 11 | 67 | 17.7 | 0.0 | 0.00 | 0.00 | 0.00 | 83 | 1061.8 |
| 20260509235007 | 11 | 90 | 8.0 | 0.0 | 0.00 | 0.00 | 0.00 | 83 | 1061.9 |
| 20260509234901 | 11 | 112 | 6.4 | 0.0 | 0.00 | 0.00 | 0.00 | 83 | 1061.9 |
| 20260509234746 | 11 | 45 | 6.4 | 0.0 | 0.00 | 0.00 | 0.00 | 83 | 1061.9 |
| 20260509234641 | 11 | 45 | 9.7 | 0.0 | 0.00 | 0.00 | 0.00 | 83 | 1062.0 |
| 20260509234534 | 11 | 45 | 6.4 | 0.0 | 0.00 | 0.00 | 0.00 | 83 | 1061.9 |
| 20260509234428 | 11 | 67 | 6.4 | 0.0 | 0.00 | 0.00 | 0.00 | 83 | 1062.0 |
| 20260509234306 | 11 | 45 | 1.6 | 0.0 | 0.00 | 0.00 | 0.00 | 83 | 1061.9 |
| 20260509234151 | 11 | 22 | 9.7 | 0.0 | 0.00 | 0.00 | 0.00 | 83 | 1062.0 |
| 20260509234037 | 11 | 22 | 11.3 | 0.0 | 0.00 | 0.00 | 0.00 | 83 | 1061.9 |
| 20260509233931 | 11 | 45 | 3.2 | 0.0 | 0.00 | 0.00 | 0.00 | 82 | 1061.9 |
| 20260509233825 | 11 | 45 | 6.4 | 0.0 | 0.00 | 0.00 | 0.00 | 82 | 1062.0 |
| 20260509233719 | 11 | 0 | 4.8 | 0.0 | 0.00 | 0.00 | 0.00 | 82 | 1062.0 |
| 20260509233605 | 11 | 45 | 1.6 | 0.0 | 0.00 | 0.00 | 0.00 | 82 | 1061.9 |
| 20260509233451 | 11 | 45 | 6.4 | 0.0 | 0.00 | 0.00 | 0.00 | 82 | 1061.9 |
| 20260509233344 | 11 | 90 | 4.8 | 0.0 | 0.00 | 0.00 | 0.00 | 82 | 1062.0 |
| 20260509233223 | 11 | 22 | 3.2 | 0.0 | 0.00 | 0.00 | 0.00 | 82 | 1062.0 |
| 20260509233116 | 11 | 22 | 9.7 | 0.0 | 0.00 | 0.00 | 0.00 | 82 | 1062.0 |
| 20260509233011 | 11 | 22 | 4.8 | 0.0 | 0.00 | 0.00 | 0.00 | 82 | 1062.0 |
| 20260509232857 | 11 | 45 | 8.0 | 0.0 | 0.00 | 0.00 | 0.00 | 82 | 1062.0 |
| 20260509232747 | 11 | 22 | 0.0 | 0.0 | 0.00 | 0.00 | 0.00 | 82 | 1062.1 |
| 20260509232641 | 11 | 45 | 9.7 | 0.0 | 0.00 | 0.00 | 0.00 | 82 | 1062.0 |
| 20260509232534 | 11 | 0 | 8.0 | 0.0 | 0.00 | 0.00 | 0.00 | 81 | 1062.0 |
| 20260509232414 | 11 | 45 | 4.8 | 0.0 | 0.00 | 0.00 | 0.00 | 81 | 1062.0 |
| 20260509232244 | 11 | 22 | 1.6 | 0.0 | 0.00 | 0.00 | 0.00 | 81 | 1062.0 |
| 20260509232124 | 11 | 22 | 8.0 | 0.0 | 0.00 | 0.00 | 0.00 | 81 | 1062.0 |
| 20260509232003 | 11 | 22 | 8.0 | 0.0 | 0.00 | 0.00 | 0.00 | 81 | 1062.1 |
| 20260509231847 | 11 | 22 | 3.2 | 0.0 | 0.00 | 0.00 | 0.00 | 81 | 1062.0 |
| 20260509231718 | 11 | 67 | 0.0 | 0.0 | 0.00 | 0.00 | 0.00 | 81 | 1062.2 |
| 20260509231605 | 11 | 22 | 0.0 | 0.0 | 0.00 | 0.00 | 0.00 | 81 | 1062.1 |
| 20260509231452 | 11 | 22 | 3.2 | 0.0 | 0.00 | 0.00 | 0.00 | 81 | 1062.1 |
| 20260509231323 | 11 | 22 | 0.0 | 0.0 | 0.00 | 0.00 | 0.00 | 81 | 1062.1 |
| 20260509231217 | 11 | 67 | 12.9 | 0.0 | 0.00 | 0.00 | 0.00 | 80 | 1062.2 |
| 20260509231104 | 11 | 22 | 0.0 | 0.0 | 0.00 | 0.00 | 0.00 | 80 | 1062.2 |
| 20260509230954 | 11 | 45 | 12.9 | 0.0 | 0.00 | 0.00 | 0.00 | 80 | 1062.1 |
| 20260509230846 | 11 | 45 | 9.7 | 0.0 | 0.00 | 0.00 | 0.00 | 80 | 1062.2 |
| 20260509230733 | 11 | 45 | 3.2 | 0.0 | 0.00 | 0.00 | 0.00 | 80 | 1062.2 |
| 20260509230620 | 11 | 45 | 8.0 | 0.0 | 0.00 | 0.00 | 0.00 | 80 | 1062.2 |
| 20260509230515 | 11 | 67 | 3.2 | 0.0 | 0.00 | 0.00 | 0.00 | 80 | 1062.2 |
| 20260509230356 | 11 | 45 | 8.0 | 0.0 | 0.00 | 0.00 | 0.00 | 80 | 1062.2 |
| 20260509230241 | 11 | 45 | 9.7 | 0.0 | 0.00 | 0.00 | 0.00 | 80 | 1062.3 |
| 20260509230128 | 11 | 45 | 11.3 | 0.0 | 0.00 | 0.00 | 0.00 | 80 | 1062.3 |
| 20260509230017 | 11 | 67 | 3.2 | 0.0 | 0.00 | 0.00 | 0.00 | 80 | 1062.3 |
| 20260509225912 | 11 | 45 | 0.0 | 0.0 | 0.00 | 0.00 | 0.00 | 80 | 1062.3 |
| 20260509225756 | 11 | 45 | 9.7 | 0.0 | 0.00 | 0.00 | 0.00 | 80 | 1062.4 |
| 20260509225636 | 11 | 45 | 4.8 | 0.0 | 0.00 | 0.00 | 0.00 | 80 | 1062.3 |
| 20260509225530 | 11 | 112 | 8.0 | 0.0 | 0.00 | 0.00 | 0.00 | 80 | 1062.4 |
| 20260509225410 | 11 | 112 | 6.4 | 0.0 | 0.00 | 0.00 | 0.00 | 80 | 1062.4 |
| 20260509225256 | 11 | 90 | 6.4 | 0.0 | 0.00 | 0.00 | 0.00 | 80 | 1062.4 |
| 20260509225135 | 11 | 67 | 9.7 | 0.0 | 0.00 | 0.00 | 0.00 | 80 | 1062.4 |
| 20260509225021 | 11 | 45 | 6.4 | 0.0 | 0.00 | 0.00 | 0.00 | 80 | 1062.5 |
| 20260509224900 | 11 | 45 | 16.1 | 0.0 | 0.00 | 0.00 | 0.00 | 80 | 1062.4 |
| 20260509224742 | 11 | 90 | 4.8 | 0.0 | 0.00 | 0.00 | 0.00 | 80 | 1062.5 |
| 20260509224634 | 11 | 45 | 9.7 | 0.0 | 0.00 | 0.00 | 0.00 | 80 | 1062.5 |
| 20260509224512 | 11 | 45 | 12.9 | 0.0 | 0.00 | 0.00 | 0.00 | 80 | 1062.5 |
| 20260509224343 | 11 | 45 | 6.4 | 0.0 | 0.00 | 0.00 | 0.00 | 80 | 1062.5 |
| 20260509224214 | 11 | 67 | 9.7 | 0.0 | 0.00 | 0.00 | 0.00 | 80 | 1062.5 |
| 20260509224052 | 11 | 45 | 9.7 | 0.0 | 0.00 | 0.00 | 0.00 | 80 | 1062.5 |
| 20260509223926 | 11 | 67 | 9.7 | 0.0 | 0.00 | 0.00 | 0.00 | 80 | 1062.5 |
| 20260509223821 | 11 | 45 | 3.2 | 0.0 | 0.00 | 0.00 | 0.00 | 79 | 1062.6 |
| 20260509223716 | 11 | 90 | 4.8 | 0.0 | 0.00 | 0.00 | 0.00 | 79 | 1062.5 |
| 20260509223609 | 11 | 112 | 0.0 | 0.0 | 0.00 | 0.00 | 0.00 | 79 | 1062.6 |
| 20260509223447 | 11 | 67 | 6.4 | 0.0 | 0.00 | 0.00 | 0.00 | 79 | 1062.6 |
| 20260509223317 | 11 | 90 | 3.2 | 0.0 | 0.00 | 0.00 | 0.00 | 79 | 1062.6 |
| 20260509223158 | 11 | 67 | 3.2 | 0.0 | 0.00 | 0.00 | 0.00 | 79 | 1062.7 |
| 20260509223054 | 11 | 45 | 8.0 | 0.0 | 0.00 | 0.00 | 0.00 | 79 | 1062.6 |
| 20260509222946 | 11 | 90 | 0.0 | 0.0 | 0.00 | 0.00 | 0.00 | 79 | 1062.7 |
| 20260509222826 | 11 | 67 | 8.0 | 0.0 | 0.00 | 0.00 | 0.00 | 79 | 1062.6 |
| 20260509222712 | 11 | 67 | 11.3 | 0.0 | 0.00 | 0.00 | 0.00 | 79 | 1062.7 |
| 20260509222600 | 11 | 45 | 14.5 | 0.0 | 0.00 | 0.00 | 0.00 | 79 | 1062.7 |
| 20260509222439 | 11 | 22 | 16.1 | 0.0 | 0.00 | 0.00 | 0.00 | 78 | 1062.7 |
| 20260509222333 | 11 | 67 | 3.2 | 0.0 | 0.00 | 0.00 | 0.00 | 78 | 1062.8 |
| 20260509222213 | 11 | 67 | 4.8 | 0.0 | 0.00 | 0.00 | 0.00 | 79 | 1062.7 |
| 20260509222058 | 11 | 90 | 1.6 | 0.0 | 0.00 | 0.00 | 0.00 | 79 | 1062.7 |
| 20260509221937 | 11 | 45 | 9.7 | 0.0 | 0.00 | 0.00 | 0.00 | 78 | 1062.7 |
| 20260509221816 | 11 | 90 | 9.7 | 0.0 | 0.00 | 0.00 | 0.00 | 78 | 1062.7 |
| 20260509221649 | 11 | 90 | 4.8 | 0.0 | 0.00 | 0.00 | 0.00 | 78 | 1062.7 |
| 20260509221543 | 11 | 45 | 8.0 | 0.0 | 0.00 | 0.00 | 0.00 | 78 | 1062.7 |
| 20260509221437 | 11 | 67 | 9.7 | 0.0 | 0.00 | 0.00 | 0.00 | 78 | 1062.7 |
| 20260509221330 | 11 | 45 | 8.0 | 0.0 | 0.00 | 0.00 | 0.00 | 78 | 1062.7 |
| 20260509221209 | 11 | 90 | 8.0 | 0.0 | 0.00 | 0.00 | 0.00 | 78 | 1062.7 |
| 20260509221042 | 11 | 45 | 11.3 | 0.0 | 0.00 | 0.00 | 0.00 | 78 | 1062.7 |
| 20260509220934 | 11 | 45 | 4.8 | 0.0 | 0.00 | 0.00 | 0.00 | 78 | 1062.7 |
| 20260509220821 | 11 | 67 | 9.7 | 0.0 | 0.00 | 0.00 | 0.00 | 78 | 1062.7 |
| 20260509220709 | 11 | 45 | 8.0 | 0.0 | 0.00 | 0.00 | 0.00 | 78 | 1062.7 |
| 20260509220547 | 11 | 45 | 8.0 | 0.0 | 0.00 | 0.00 | 0.00 | 78 | 1062.7 |
| 20260509220417 | 11 | 22 | 8.0 | 0.0 | 0.00 | 0.00 | 0.00 | 78 | 1062.8 |
| 20260509220256 | 11 | 45 | 11.3 | 0.0 | 0.00 | 0.00 | 0.00 | 78 | 1062.7 |
| 20260509220144 | 11 | 67 | 8.0 | 0.0 | 0.00 | 0.00 | 0.00 | 78 | 1062.7 |
| 20260509220021 | 11 | 0 | 6.4 | 0.0 | 0.00 | 0.00 | 0.00 | 78 | 1062.7 |
| 20260509215855 | 11 | 45 | 12.9 | 0.0 | 0.00 | 0.00 | 0.00 | 78 | 1062.8 |
| 20260509215740 | 11 | 45 | 6.4 | 0.0 | 0.00 | 0.00 | 0.00 | 78 | 1062.8 |
| 20260509215627 | 11 | 45 | 4.8 | 0.0 | 0.00 | 0.00 | 0.00 | 78 | 1062.8 |
| 20260509215514 | 11 | 45 | 9.7 | 0.0 | 0.00 | 0.00 | 0.00 | 78 | 1062.8 |
| 20260509215409 | 11 | 45 | 6.4 | 0.0 | 0.00 | 0.00 | 0.00 | 78 | 1062.8 |
| 20260509215249 | 11 | 67 | 9.7 | 0.0 | 0.00 | 0.00 | 0.00 | 78 | 1062.8 |
| 20260509215142 | 11 | 22 | 9.7 | 0.0 | 0.00 | 0.00 | 0.00 | 78 | 1062.8 |
| 20260509215022 | 11 | 45 | 9.7 | 0.0 | 0.00 | 0.00 | 0.00 | 78 | 1062.8 |
| 20260509214902 | 11 | 45 | 9.7 | 0.0 | 0.00 | 0.00 | 0.00 | 78 | 1062.8 |
| 20260509214754 | 11 | 22 | 4.8 | 0.0 | 0.00 | 0.00 | 0.00 | 78 | 1062.8 |
| 20260509214641 | 11 | 22 | 1.6 | 0.0 | 0.00 | 0.00 | 0.00 | 78 | 1062.8 |
| 20260509214522 | 11 | 22 | 6.4 | 0.0 | 0.00 | 0.00 | 0.00 | 78 | 1062.8 |
| 20260509214415 | 11 | 0 | 6.4 | 0.0 | 0.00 | 0.00 | 0.00 | 78 | 1062.8 |
| 20260509214253 | 11 | 90 | 1.6 | 0.0 | 0.00 | 0.00 | 0.00 | 78 | 1062.8 |
| 20260509214124 | 11 | 45 | 12.9 | 0.0 | 0.00 | 0.00 | 0.00 | 77 | 1062.8 |
| 20260509214005 | 11 | 67 | 4.8 | 0.0 | 0.00 | 0.00 | 0.00 | 77 | 1062.8 |
| 20260509213850 | 11 | 45 | 9.7 | 0.0 | 0.00 | 0.00 | 0.00 | 77 | 1062.9 |
| 20260509213728 | 11 | 67 | 4.8 | 0.0 | 0.00 | 0.00 | 0.00 | 77 | 1062.8 |
| 20260509213600 | 11 | 45 | 4.8 | 0.0 | 0.00 | 0.00 | 0.00 | 77 | 1062.9 |
| 20260509213446 | 11 | 67 | 3.2 | 0.0 | 0.00 | 0.00 | 0.00 | 77 | 1062.9 |
| 20260509213326 | 11 | 90 | 8.0 | 0.0 | 0.00 | 0.00 | 0.00 | 77 | 1062.9 |
| 20260509213212 | 11 | 112 | 3.2 | 0.0 | 0.00 | 0.00 | 0.00 | 77 | 1063.0 |
| 20260509213101 | 11 | 90 | 8.0 | 0.0 | 0.00 | 0.00 | 0.00 | 77 | 1062.9 |
| 20260509212954 | 11 | 90 | 11.3 | 0.0 | 0.00 | 0.00 | 0.00 | 77 | 1062.9 |
| 20260509212840 | 11 | 90 | 9.7 | 0.0 | 0.00 | 0.00 | 0.00 | 77 | 1063.0 |
| 20260509212721 | 11 | 112 | 12.9 | 0.0 | 0.00 | 0.00 | 0.00 | 77 | 1063.0 |
| 20260509212614 | 11 | 45 | 4.8 | 0.0 | 0.00 | 0.00 | 0.00 | 77 | 1063.0 |
| 20260509212502 | 11 | 67 | 8.0 | 0.0 | 0.00 | 0.00 | 0.00 | 77 | 1063.0 |
| 20260509212357 | 11 | 67 | 4.8 | 0.0 | 0.00 | 0.00 | 0.00 | 77 | 1063.0 |
| 20260509212252 | 11 | 90 | 4.8 | 0.0 | 0.00 | 0.00 | 0.00 | 77 | 1063.0 |
| 20260509212130 | 11 | 67 | 3.2 | 0.0 | 0.00 | 0.00 | 0.00 | 77 | 1063.0 |
| 20260509212009 | 11 | 90 | 6.4 | 0.0 | 0.00 | 0.00 | 0.00 | 77 | 1063.0 |
| 20260509211848 | 11 | 67 | 3.2 | 0.0 | 0.00 | 0.00 | 0.00 | 76 | 1063.1 |
| 20260509211721 | 11 | 90 | 12.9 | 0.0 | 0.00 | 0.00 | 0.00 | 76 | 1063.0 |
| 20260509211613 | 11 | 45 | 12.9 | 0.0 | 0.00 | 0.00 | 0.00 | 76 | 1063.0 |
| 20260509211452 | 11 | 90 | 4.8 | 0.0 | 0.00 | 0.00 | 0.00 | 76 | 1063.1 |
| 20260509211339 | 11 | 45 | 6.4 | 0.0 | 0.00 | 0.00 | 0.00 | 76 | 1063.1 |
| 20260509211220 | 11 | 90 | 8.0 | 0.0 | 0.00 | 0.00 | 0.00 | 76 | 1063.0 |
| 20260509211105 | 11 | 90 | 6.4 | 0.0 | 0.00 | 0.00 | 0.00 | 76 | 1063.0 |
| 20260509210943 | 11 | 112 | 14.5 | 0.0 | 0.00 | 0.00 | 0.00 | 75 | 1063.0 |
| 20260509210833 | 11 | 45 | 9.7 | 0.0 | 0.00 | 0.00 | 0.00 | 75 | 1062.9 |
| 20260509210727 | 11 | 45 | 16.1 | 0.0 | 0.00 | 0.00 | 0.00 | 75 | 1062.9 |
| 20260509210622 | 11 | 90 | 14.5 | 0.0 | 0.00 | 0.00 | 0.00 | 74 | 1062.9 |
| 20260509210517 | 11 | 45 | 0.0 | 0.0 | 0.00 | 0.00 | 0.00 | 74 | 1062.9 |
| 20260509210401 | 11 | 45 | 8.0 | 0.0 | 0.00 | 0.00 | 0.00 | 74 | 1062.9 |
| 20260509210249 | 11 | 90 | 8.0 | 0.0 | 0.00 | 0.00 | 0.00 | 74 | 1063.0 |
| 20260509210127 | 11 | 67 | 8.0 | 0.0 | 0.00 | 0.00 | 0.00 | 74 | 1062.9 |
| 20260509210007 | 11 | 22 | 6.4 | 0.0 | 0.00 | 0.00 | 0.00 | 74 | 1063.0 |
| 20260509205846 | 11 | 45 | 12.9 | 0.0 | 0.00 | 0.00 | 0.00 | 73 | 1063.0 |
| 20260509205733 | 11 | 45 | 11.3 | 0.0 | 0.00 | 0.00 | 0.00 | 73 | 1063.0 |
| 20260509205628 | 11 | 45 | 11.3 | 0.0 | 0.00 | 0.00 | 0.00 | 73 | 1063.0 |
| 20260509205514 | 11 | 45 | 9.7 | 0.0 | 0.00 | 0.00 | 0.00 | 73 | 1063.0 |
| 20260509205345 | 11 | 45 | 14.5 | 0.0 | 0.00 | 0.00 | 0.00 | 72 | 1063.1 |
| 20260509205231 | 11 | 22 | 6.4 | 0.0 | 0.00 | 0.00 | 0.00 | 72 | 1063.0 |
| 20260509205118 | 11 | 90 | 3.2 | 0.0 | 0.00 | 0.00 | 0.00 | 72 | 1063.1 |
| 20260509204948 | 11 | 67 | 9.7 | 0.0 | 0.00 | 0.00 | 0.00 | 73 | 1063.0 |
| 20260509204836 | 11 | 112 | 8.0 | 0.0 | 0.00 | 0.00 | 0.00 | 73 | 1063.1 |
| 20260509204717 | 11 | 90 | 8.0 | 0.0 | 0.00 | 0.00 | 0.00 | 73 | 1063.1 |
| 20260509204610 | 11 | 45 | 4.8 | 0.0 | 0.00 | 0.00 | 0.00 | 73 | 1063.1 |
| 20260509204456 | 11 | 67 | 3.2 | 0.0 | 0.00 | 0.00 | 0.00 | 73 | 1063.1 |
| 20260509204327 | 11 | 45 | 8.0 | 0.0 | 0.00 | 0.00 | 0.00 | 73 | 1063.2 |
| 20260509204213 | 11 | 22 | 6.4 | 0.0 | 0.00 | 0.00 | 0.00 | 74 | 1063.2 |
| 20260509204044 | 11 | 45 | 9.7 | 0.0 | 0.00 | 0.00 | 0.00 | 74 | 1063.2 |
| 20260509203932 | 11 | 67 | 8.0 | 0.0 | 0.00 | 0.00 | 0.00 | 74 | 1063.2 |
| 20260509203809 | 11 | 67 | 0.0 | 0.0 | 0.00 | 0.00 | 0.00 | 74 | 1063.2 |
| 20260509203650 | 11 | 45 | 3.2 | 0.0 | 0.00 | 0.00 | 0.00 | 74 | 1063.2 |
| 20260509203536 | 11 | 67 | 9.7 | 0.0 | 0.00 | 0.00 | 0.00 | 74 | 1063.1 |
| 20260509203417 | 11 | 67 | 4.8 | 0.0 | 0.00 | 0.00 | 0.00 | 74 | 1063.2 |
| 20260509203310 | 11 | 67 | 9.7 | 0.0 | 0.00 | 0.00 | 0.00 | 74 | 1063.2 |
| 20260509203157 | 11 | 67 | 8.0 | 0.0 | 0.00 | 0.00 | 0.00 | 74 | 1063.2 |
| 20260509203035 | 11 | 90 | 6.4 | 0.0 | 0.00 | 0.00 | 0.00 | 74 | 1063.1 |
| 20260509202924 | 11 | 67 | 1.6 | 0.0 | 0.00 | 0.00 | 0.00 | 74 | 1063.1 |
| 20260509202810 | 12 | 45 | 4.8 | 0.0 | 0.00 | 0.00 | 0.00 | 74 | 1063.1 |
| 20260509202545 | 11 | 90 | 4.8 | 0.0 | 0.00 | 0.00 | 0.00 | 74 | 1063.1 |
| 20260509202440 | 12 | 90 | 6.4 | 0.0 | 0.00 | 0.00 | 0.00 | 74 | 1063.2 |
| 20260509202327 | 12 | 45 | 4.8 | 0.0 | 0.00 | 0.00 | 0.00 | 74 | 1063.2 |
| 20260509202221 | 12 | 67 | 6.4 | 0.0 | 0.00 | 0.00 | 0.00 | 74 | 1063.2 |
| 20260509202117 | 12 | 45 | 9.7 | 0.0 | 0.00 | 0.00 | 0.00 | 74 | 1063.3 |
| 20260509202009 | 12 | 45 | 6.4 | 0.0 | 0.00 | 0.00 | 0.00 | 74 | 1063.2 |
| 20260509201856 | 12 | 45 | 4.8 | 0.0 | 0.00 | 0.00 | 0.00 | 74 | 1063.2 |
| 20260509201737 | 12 | 45 | 3.2 | 0.0 | 0.00 | 0.00 | 0.00 | 74 | 1063.2 |
| 20260509201610 | 12 | 45 | 9.7 | 0.0 | 0.00 | 0.00 | 0.00 | 74 | 1063.2 |
| 20260509201457 | 12 | 45 | 14.5 | 0.0 | 0.00 | 0.00 | 0.00 | 74 | 1063.2 |
| 20260509201342 | 12 | 90 | 4.8 | 0.0 | 0.00 | 0.00 | 0.00 | 74 | 1063.2 |
| 20260509201220 | 12 | 45 | 0.0 | 0.0 | 0.00 | 0.00 | 0.00 | 74 | 1063.2 |
| 20260509201107 | 12 | 45 | 11.3 | 0.0 | 0.00 | 0.00 | 0.00 | 74 | 1063.2 |
| 20260509201002 | 12 | 22 | 6.4 | 0.0 | 0.00 | 0.00 | 0.00 | 74 | 1063.2 |
| 20260509200857 | 12 | 67 | 8.0 | 0.0 | 0.00 | 0.00 | 0.00 | 74 | 1063.2 |
| 20260509200750 | 12 | 90 | 3.2 | 0.0 | 0.00 | 0.00 | 0.00 | 74 | 1063.2 |
| 20260509200620 | 12 | 112 | 9.7 | 0.0 | 0.00 | 0.00 | 0.00 | 74 | 1063.2 |
| 20260509200459 | 12 | 67 | 6.4 | 0.0 | 0.00 | 0.00 | 0.00 | 74 | 1063.2 |
| 20260509200349 | 12 | 45 | 8.0 | 0.0 | 0.00 | 0.00 | 0.00 | 74 | 1063.2 |
| 20260509200242 | 12 | 67 | 4.8 | 0.0 | 0.00 | 0.00 | 0.00 | 74 | 1063.2 |
| 20260509200136 | 12 | 45 | 0.0 | 0.0 | 0.00 | 0.00 | 0.00 | 74 | 1063.1 |
| 20260509200007 | 12 | 67 | 4.8 | 0.0 | 0.00 | 0.00 | 0.00 | 74 | 1063.2 |
| 20260509195854 | 12 | 67 | 9.7 | 0.0 | 0.00 | 0.00 | 0.00 | 74 | 1063.1 |
| 20260509195750 | 12 | 45 | 4.8 | 0.0 | 0.00 | 0.00 | 0.00 | 74 | 1063.1 |
| 20260509195644 | 12 | 90 | 0.0 | 0.0 | 0.00 | 0.00 | 0.00 | 73 | 1063.1 |
| 20260509195539 | 12 | 67 | 1.6 | 0.0 | 0.00 | 0.00 | 0.00 | 73 | 1063.1 |
| 20260509195420 | 12 | 45 | 6.4 | 0.0 | 0.00 | 0.00 | 0.00 | 73 | 1063.1 |
| 20260509195306 | 12 | 45 | 4.8 | 0.0 | 0.00 | 0.00 | 0.00 | 73 | 1063.1 |
| 20260509195151 | 12 | 90 | 4.8 | 0.0 | 0.00 | 0.00 | 0.00 | 73 | 1063.1 |
| 20260509195022 | 12 | 90 | 4.8 | 0.0 | 0.00 | 0.00 | 0.00 | 73 | 1063.2 |
| 20260509194855 | 12 | 22 | 9.7 | 0.0 | 0.00 | 0.00 | 0.00 | 73 | 1063.3 |
| 20260509194740 | 12 | 45 | 8.0 | 0.0 | 0.00 | 0.00 | 0.00 | 73 | 1063.3 |
| 20260509194618 | 12 | 45 | 9.7 | 0.0 | 0.00 | 0.00 | 0.00 | 73 | 1063.4 |
| 20260509194505 | 12 | 67 | 3.2 | 0.0 | 0.00 | 0.00 | 0.00 | 73 | 1063.3 |
| 20260509194343 | 12 | 45 | 9.7 | 0.0 | 0.00 | 0.00 | 0.00 | 73 | 1063.3 |
| 20260509194231 | 12 | 67 | 1.6 | 0.0 | 0.00 | 0.00 | 0.00 | 73 | 1063.4 |
| 20260509194111 | 12 | 67 | 9.7 | 0.0 | 0.00 | 0.00 | 0.00 | 73 | 1063.2 |
| 20260509194005 | 12 | 67 | 3.2 | 0.0 | 0.00 | 0.00 | 0.00 | 72 | 1063.3 |
| 20260509193852 | 12 | 45 | 6.4 | 0.0 | 0.00 | 0.00 | 0.00 | 72 | 1063.3 |
| 20260509193732 | 12 | 45 | 6.4 | 0.0 | 0.00 | 0.00 | 0.00 | 72 | 1063.3 |
| 20260509193625 | 12 | 45 | 9.7 | 0.0 | 0.00 | 0.00 | 0.00 | 72 | 1063.2 |
| 20260509193503 | 12 | 45 | 8.0 | 0.0 | 0.00 | 0.00 | 0.00 | 72 | 1063.2 |
| 20260509193343 | 12 | 45 | 0.0 | 0.0 | 0.00 | 0.00 | 0.00 | 72 | 1063.2 |
| 20260509193223 | 12 | 45 | 8.0 | 0.0 | 0.00 | 0.00 | 0.00 | 72 | 1063.2 |
| 20260509193117 | 12 | 45 | 6.4 | 0.0 | 0.00 | 0.00 | 0.00 | 72 | 1063.2 |
| 20260509193003 | 12 | 45 | 4.8 | 0.0 | 0.00 | 0.00 | 0.00 | 71 | 1063.2 |
| 20260509192845 | 12 | 67 | 0.0 | 0.0 | 0.00 | 0.00 | 0.00 | 71 | 1063.2 |
| 20260509192737 | 12 | 90 | 4.8 | 0.0 | 0.00 | 0.00 | 0.00 | 71 | 1063.3 |
| 20260509192624 | 12 | 45 | 4.8 | 0.0 | 0.00 | 0.00 | 0.00 | 71 | 1063.3 |
| 20260509192519 | 12 | 45 | 8.0 | 0.0 | 0.00 | 0.00 | 0.00 | 71 | 1063.2 |
| 20260509192405 | 12 | 45 | 11.3 | 0.0 | 0.00 | 0.00 | 0.00 | 71 | 1063.2 |
| 20260509192255 | 12 | 90 | 9.7 | 0.0 | 0.00 | 0.00 | 0.00 | 71 | 1063.2 |
| 20260509192142 | 12 | 45 | 6.4 | 0.0 | 0.00 | 0.00 | 0.00 | 71 | 1063.2 |
| 20260509192034 | 12 | 45 | 1.6 | 0.0 | 0.00 | 0.00 | 0.00 | 71 | 1063.2 |
| 20260509191913 | 12 | 45 | 6.4 | 0.0 | 0.00 | 0.00 | 0.00 | 71 | 1063.2 |
| 20260509191752 | 12 | 45 | 11.3 | 0.0 | 0.00 | 0.00 | 0.00 | 71 | 1063.2 |
| 20260509191638 | 12 | 45 | 6.4 | 0.0 | 0.00 | 0.00 | 0.00 | 71 | 1063.2 |
| 20260509191518 | 12 | 22 | 8.0 | 0.0 | 0.00 | 0.00 | 0.00 | 71 | 1063.1 |
| 20260509191407 | 12 | 45 | 6.4 | 0.0 | 0.00 | 0.00 | 0.00 | 71 | 1063.2 |
| 20260509191300 | 12 | 67 | 14.5 | 0.0 | 0.00 | 0.00 | 0.00 | 71 | 1063.1 |
| 20260509191147 | 12 | 45 | 11.3 | 0.0 | 0.00 | 0.00 | 0.00 | 71 | 1063.1 |
| 20260509191042 | 12 | 45 | 12.9 | 0.0 | 0.00 | 0.00 | 0.00 | 71 | 1063.1 |
| 20260509190930 | 12 | 22 | 4.8 | 0.0 | 0.00 | 0.00 | 0.00 | 71 | 1063.0 |
| 20260509190823 | 12 | 45 | 11.3 | 0.0 | 0.00 | 0.00 | 0.00 | 70 | 1063.1 |
| 20260509190713 | 12 | 22 | 3.2 | 0.0 | 0.00 | 0.00 | 0.00 | 70 | 1063.1 |
| 20260509190605 | 12 | 22 | 6.4 | 0.0 | 0.00 | 0.00 | 0.00 | 70 | 1063.0 |
| 20260509190445 | 12 | 45 | 8.0 | 0.0 | 0.00 | 0.00 | 0.00 | 70 | 1063.1 |
| 20260509190333 | 12 | 22 | 6.4 | 0.0 | 0.00 | 0.00 | 0.00 | 70 | 1063.0 |
| 20260509190226 | 12 | 22 | 1.6 | 0.0 | 0.00 | 0.00 | 0.00 | 69 | 1063.0 |
| 20260509190105 | 12 | 45 | 4.8 | 0.0 | 0.00 | 0.00 | 0.00 | 69 | 1063.0 |
| 20260509185952 | 12 | 67 | 9.7 | 0.0 | 0.00 | 0.00 | 0.00 | 69 | 1063.0 |
| 20260509185846 | 12 | 45 | 9.7 | 0.0 | 0.00 | 0.00 | 0.00 | 69 | 1063.0 |
| 20260509185725 | 12 | 112 | 0.0 | 0.0 | 0.00 | 0.00 | 0.00 | 69 | 1062.9 |
| 20260509185613 | 12 | 90 | 11.3 | 0.0 | 0.00 | 0.00 | 0.00 | 69 | 1063.0 |
| 20260509185506 | 12 | 22 | 9.7 | 0.0 | 0.00 | 0.00 | 0.00 | 69 | 1063.0 |
| 20260509185355 | 12 | 67 | 4.8 | 0.0 | 0.00 | 0.00 | 0.00 | 69 | 1063.0 |
| 20260509185249 | 12 | 67 | 3.2 | 0.0 | 0.00 | 0.00 | 0.00 | 69 | 1062.9 |
| 20260509185144 | 12 | 45 | 3.2 | 0.0 | 0.00 | 0.00 | 0.00 | 69 | 1062.9 |
| 20260509185031 | 12 | 45 | 0.0 | 0.0 | 0.00 | 0.00 | 0.00 | 69 | 1062.9 |
| 20260509184909 | 12 | 45 | 3.2 | 0.0 | 0.00 | 0.00 | 0.00 | 69 | 1062.9 |
| 20260509184748 | 12 | 45 | 6.4 | 0.0 | 0.00 | 0.00 | 0.00 | 69 | 1062.9 |
| 20260509184627 | 12 | 45 | 8.0 | 0.0 | 0.00 | 0.00 | 0.00 | 69 | 1063.0 |
| 20260509184514 | 12 | 45 | 8.0 | 0.0 | 0.00 | 0.00 | 0.00 | 69 | 1062.9 |
| 20260509184401 | 12 | 45 | 9.7 | 0.0 | 0.00 | 0.00 | 0.00 | 69 | 1062.9 |
| 20260509184258 | 12 | 45 | 9.7 | 0.0 | 0.00 | 0.00 | 0.00 | 69 | 1063.0 |
| 20260509184150 | 12 | 22 | 9.7 | 0.0 | 0.00 | 0.00 | 0.00 | 68 | 1063.1 |
| 20260509184029 | 12 | 45 | 9.7 | 0.0 | 0.00 | 0.00 | 0.00 | 68 | 1063.0 |
| 20260509183916 | 13 | 45 | 0.0 | 0.0 | 0.00 | 0.00 | 0.00 | 68 | 1062.9 |
| 20260509183757 | 13 | 90 | 8.0 | 0.0 | 0.00 | 0.00 | 0.00 | 68 | 1063.0 |
| 20260509183651 | 13 | 45 | 9.7 | 0.0 | 0.00 | 0.00 | 0.00 | 68 | 1062.9 |
| 20260509183537 | 13 | 45 | 11.3 | 0.0 | 0.00 | 0.00 | 0.00 | 68 | 1062.8 |
| 20260509183424 | 13 | 45 | 11.3 | 0.0 | 0.00 | 0.00 | 0.00 | 67 | 1062.9 |
| 20260509183310 | 13 | 45 | 3.2 | 0.0 | 0.00 | 0.00 | 0.00 | 67 | 1062.8 |
| 20260509183150 | 13 | 67 | 8.0 | 0.0 | 0.00 | 0.00 | 0.00 | 67 | 1062.8 |
| 20260509183037 | 13 | 67 | 0.0 | 0.0 | 0.00 | 0.00 | 0.00 | 67 | 1062.9 |
| 20260509182932 | 13 | 45 | 16.1 | 0.0 | 0.00 | 0.00 | 0.00 | 67 | 1062.8 |
| 20260509182821 | 13 | 45 | 3.2 | 0.0 | 0.00 | 0.00 | 0.00 | 66 | 1062.9 |